Time,TemperatureF,DewpointF,PressureIn,WindDirection,WindDirectionDegrees,WindSpeedMPH,WindSpeedGustMPH,Humidity,HourlyPrecipIn,Conditions,Clouds,dailyrainin,SoftwareType,DateUTC
2013-08-20 00:00:00,66.0,62.3,29.95,NNW,343,0.0,0.0,88,0.00,,---,0.00,VWS V14.01,2013-08-20 04:00:00,
2013-08-20 00:16:00,64.9,62.5,29.95,NNW,335,0.0,0.0,92,0.00,,---,0.00,VWS V14.01,2013-08-20 04:16:00,
2013-08-20 00:17:00,64.9,62.5,29.95,NNW,335,0.0,0.0,92,0.00,,---,0.00,VWS V14.01,2013-08-20 04:17:00,
2013-08-20 00:18:00,64.9,62.5,29.95,NNW,336,0.0,0.0,92,0.00,,---,0.00,VWS V14.01,2013-08-20 04:18:00,
2013-08-20 00:20:00,64.9,62.5,29.95,NNW,337,0.0,0.0,92,0.00,,---,0.00,VWS V14.01,2013-08-20 04:20:00,
2013-08-20 00:21:00,65.0,62.6,29.95,NNW,337,0.0,0.0,92,0.00,,---,0.00,VWS V14.01,2013-08-20 04:21:00,
2013-08-20 00:22:00,65.0,62.6,29.95,NNW,338,0.0,0.0,92,0.00,,---,0.00,VWS V14.01,2013-08-20 04:22:00,
2013-08-20 00:23:00,65.1,62.7,29.95,NNW,338,0.0,0.0,92,0.00,,---,0.00,VWS V14.01,2013-08-20 04:23:00,
2013-08-20 00:25:00,65.2,62.8,29.95,NNW,337,0.0,0.0,92,0.00,,---,0.00,VWS V14.01,2013-08-20 04:25:00,
2013-08-20 00:26:00,65.2,62.8,29.95,NNW,338,0.0,0.0,92,0.00,,---,0.00,VWS V14.01,2013-08-20 04:26:00,
2013-08-20 00:27:00,65.3,62.9,29.95,NNW,339,0.0,0.0,92,0.00,,---,0.00,VWS V14.01,2013-08-20 04:27:00,
2013-08-20 00:28:00,65.3,62.9,29.95,NNW,340,0.0,0.0,92,0.00,,---,0.00,VWS V14.01,2013-08-20 04:28:00,
2013-08-20 00:30:00,65.3,62.6,29.95,NNW,342,0.0,0.0,91,0.00,,---,0.00,VWS V14.01,2013-08-20 04:30:00,
2013-08-20 00:31:00,65.2,62.5,29.95,NNW,343,0.0,0.0,91,0.00,,---,0.00,VWS V14.01,2013-08-20 04:31:00,
2013-08-20 00:32:00,65.2,62.5,29.95,NNW,342,0.0,0.0,91,0.00,,---,0.00,VWS V14.01,2013-08-20 04:32:00,
2013-08-20 00:33:00,65.1,62.4,29.95,NNW,345,0.0,0.0,91,0.00,,---,0.00,VWS V14.01,2013-08-20 04:33:00,
2013-08-20 00:36:00,65.0,62.3,29.95,NNW,344,0.0,0.0,91,0.00,,---,0.00,VWS V14.01,2013-08-20 04:36:00,
2013-08-20 00:37:00,65.0,62.6,29.95,NNW,345,0.0,0.0,92,0.00,,---,0.00,VWS V14.01,2013-08-20 04:37:00,
2013-08-20 00:39:00,64.9,62.5,29.95,NNW,345,0.0,0.0,92,0.00,,---,0.00,VWS V14.01,2013-08-20 04:39:00,
2013-08-20 00:40:00,64.9,62.5,29.95,NNW,345,0.0,0.0,92,0.00,,---,0.00,VWS V14.01,2013-08-20 04:40:00,
2013-08-20 00:41:00,64.9,62.2,29.95,NNW,345,0.0,0.0,91,0.00,,---,0.00,VWS V14.01,2013-08-20 04:41:00,
2013-08-20 00:42:00,64.8,62.1,29.95,NNW,345,0.0,0.0,91,0.00,,---,0.00,VWS V14.01,2013-08-20 04:42:00,
2013-08-20 00:43:00,64.8,62.1,29.95,NNW,345,0.0,0.0,91,0.00,,---,0.00,VWS V14.01,2013-08-20 04:43:00,
2013-08-20 00:44:00,64.7,62.0,29.95,NNW,345,0.0,0.0,91,0.00,,---,0.00,VWS V14.01,2013-08-20 04:44:00,
2013-08-20 00:46:00,64.6,61.9,29.95,NNW,340,0.0,0.0,91,0.00,,---,0.00,VWS V14.01,2013-08-20 04:46:00,
2013-08-20 00:47:00,64.5,61.8,29.95,NNW,342,0.0,0.0,91,0.00,,---,0.00,VWS V14.01,2013-08-20 04:47:00,
2013-08-20 00:48:00,64.4,61.7,29.95,NNW,345,0.0,0.0,91,0.00,,---,0.00,VWS V14.01,2013-08-20 04:48:00,
2013-08-20 00:50:00,64.2,61.5,29.95,NNW,345,0.0,0.0,91,0.00,,---,0.00,VWS V14.01,2013-08-20 04:50:00,
2013-08-20 00:51:00,64.1,61.4,29.95,NNW,345,0.0,0.0,91,0.00,,---,0.00,VWS V14.01,2013-08-20 04:51:00,
2013-08-20 00:54:00,64.0,61.6,29.95,NNW,345,0.0,0.0,92,0.00,,---,0.00,VWS V14.01,2013-08-20 04:54:00,
2013-08-20 00:55:00,64.0,61.6,29.95,NNW,345,0.0,0.0,92,0.00,,---,0.00,VWS V14.01,2013-08-20 04:55:00,
2013-08-20 00:56:00,64.0,61.9,29.95,NNW,345,0.0,0.0,93,0.00,,---,0.00,VWS V14.01,2013-08-20 04:56:00,
2013-08-20 00:59:00,64.0,61.9,29.95,NNW,345,0.0,0.0,93,0.00,,---,0.00,VWS V14.01,2013-08-20 04:59:00,
2013-08-20 01:00:00,63.9,61.8,29.95,NNW,345,0.0,0.0,93,0.00,,---,0.00,VWS V14.01,2013-08-20 05:00:00,
2013-08-20 01:01:00,63.9,61.8,29.95,NNW,345,0.0,0.0,93,0.00,,---,0.00,VWS V14.01,2013-08-20 05:01:00,
2013-08-20 01:02:00,63.9,61.8,29.95,NNW,342,0.0,0.0,93,0.00,,---,0.00,VWS V14.01,2013-08-20 05:02:00,
2013-08-20 01:05:00,63.9,61.8,29.95,NNW,340,0.0,0.0,93,0.00,,---,0.00,VWS V14.01,2013-08-20 05:05:00,
2013-08-20 01:06:00,63.9,61.8,29.95,NNW,340,0.0,0.0,93,0.00,,---,0.00,VWS V14.01,2013-08-20 05:06:00,
2013-08-20 01:07:00,63.9,61.8,29.95,NNW,340,0.0,0.0,93,0.00,,---,0.00,VWS V14.01,2013-08-20 05:07:00,
2013-08-20 01:11:00,63.9,62.1,29.95,NNW,340,0.0,0.0,94,0.00,,---,0.00,VWS V14.01,2013-08-20 05:11:00,
2013-08-20 01:12:00,64.0,61.9,29.95,NNW,340,0.0,0.0,93,0.00,,---,0.00,VWS V14.01,2013-08-20 05:12:00,
2013-08-20 01:13:00,64.0,61.9,29.95,NNW,340,0.0,0.0,93,0.00,,---,0.00,VWS V14.01,2013-08-20 05:13:00,
2013-08-20 01:16:00,64.1,62.0,29.95,NNW,340,0.0,0.0,93,0.00,,---,0.00,VWS V14.01,2013-08-20 05:16:00,
2013-08-20 01:17:00,64.1,62.0,29.95,NNW,343,0.0,0.0,93,0.00,,---,0.00,VWS V14.01,2013-08-20 05:17:00,
2013-08-20 01:18:00,64.2,62.1,29.95,NNW,343,0.0,0.0,93,0.00,,---,0.00,VWS V14.01,2013-08-20 05:18:00,
2013-08-20 01:19:00,64.2,62.1,29.95,NNW,342,0.0,0.0,93,0.00,,---,0.00,VWS V14.01,2013-08-20 05:19:00,
2013-08-20 01:22:00,64.1,62.0,29.95,NNW,343,0.0,0.0,93,0.00,,---,0.00,VWS V14.01,2013-08-20 05:22:00,
2013-08-20 01:24:00,64.1,62.0,29.95,NNW,343,0.0,0.0,93,0.00,,---,0.00,VWS V14.01,2013-08-20 05:24:00,
2013-08-20 01:25:00,64.1,62.0,29.95,NNW,343,0.0,0.0,93,0.00,,---,0.00,VWS V14.01,2013-08-20 05:25:00,
2013-08-20 01:28:00,64.0,61.9,29.95,NNW,341,0.0,0.0,93,0.00,,---,0.00,VWS V14.01,2013-08-20 05:28:00,
2013-08-20 01:30:00,64.0,61.9,29.95,NNW,343,0.0,0.0,93,0.00,,---,0.00,VWS V14.01,2013-08-20 05:30:00,
2013-08-20 01:31:00,64.0,61.9,29.95,NNW,343,0.0,0.0,93,0.00,,---,0.00,VWS V14.01,2013-08-20 05:31:00,
2013-08-20 01:33:00,63.9,61.8,29.95,NNW,343,0.0,0.0,93,0.00,,---,0.00,VWS V14.01,2013-08-20 05:33:00,
2013-08-20 01:35:00,63.9,61.8,29.95,NNW,343,0.0,0.0,93,0.00,,---,0.00,VWS V14.01,2013-08-20 05:35:00,
2013-08-20 01:37:00,63.9,61.8,29.95,NNW,343,0.0,0.0,93,0.00,,---,0.00,VWS V14.01,2013-08-20 05:37:00,
2013-08-20 01:38:00,63.9,61.8,29.95,NNW,343,0.0,0.0,93,0.00,,---,0.00,VWS V14.01,2013-08-20 05:38:00,
2013-08-20 01:39:00,63.9,61.8,29.95,NNW,343,0.0,0.0,93,0.00,,---,0.00,VWS V14.01,2013-08-20 05:39:00,
2013-08-20 01:40:00,63.9,61.8,29.95,NNW,342,0.0,0.0,93,0.00,,---,0.00,VWS V14.01,2013-08-20 05:40:00,
2013-08-20 01:42:00,64.0,62.2,29.95,NNW,343,0.0,0.0,94,0.00,,---,0.00,VWS V14.01,2013-08-20 05:42:00,
2013-08-20 01:43:00,64.1,62.0,29.95,NNW,343,0.0,0.0,93,0.00,,---,0.00,VWS V14.01,2013-08-20 05:43:00,
2013-08-20 01:44:00,64.1,62.3,29.95,NNW,343,0.0,0.0,94,0.00,,---,0.00,VWS V14.01,2013-08-20 05:44:00,
2013-08-20 01:45:00,64.2,62.1,29.95,NNW,343,0.0,0.0,93,0.00,,---,0.00,VWS V14.01,2013-08-20 05:45:00,
2013-08-20 01:46:00,64.2,62.1,29.95,NNW,343,0.0,0.0,93,0.00,,---,0.00,VWS V14.01,2013-08-20 05:46:00,
2013-08-20 01:47:00,64.3,62.2,29.95,NNW,341,0.0,0.0,93,0.00,,---,0.00,VWS V14.01,2013-08-20 05:47:00,
2013-08-20 01:49:00,64.5,62.4,29.95,NNW,342,0.0,0.0,93,0.00,,---,0.00,VWS V14.01,2013-08-20 05:49:00,
2013-08-20 01:51:00,64.7,62.3,29.95,NNW,336,0.0,0.0,92,0.00,,---,0.00,VWS V14.01,2013-08-20 05:51:00,
2013-08-20 01:53:00,64.8,62.4,29.95,NNW,336,0.0,0.0,92,0.00,,---,0.00,VWS V14.01,2013-08-20 05:53:00,
2013-08-20 01:54:00,64.9,62.2,29.95,NNW,336,0.0,0.0,91,0.00,,---,0.00,VWS V14.01,2013-08-20 05:54:00,
2013-08-20 01:55:00,65.0,62.3,29.95,NNW,336,0.0,0.0,91,0.00,,---,0.00,VWS V14.01,2013-08-20 05:55:00,
2013-08-20 01:57:00,65.1,62.4,29.95,NNW,336,0.0,0.0,91,0.00,,---,0.00,VWS V14.01,2013-08-20 05:57:00,
2013-08-20 01:58:00,65.2,62.2,29.96,NNW,335,0.0,0.0,90,0.00,,---,0.00,VWS V14.01,2013-08-20 05:58:00,
2013-08-20 01:59:00,65.3,62.3,29.95,NNW,334,0.0,0.0,90,0.00,,---,0.00,VWS V14.01,2013-08-20 05:59:00,
2013-08-20 02:00:00,65.4,62.4,29.95,NNW,334,0.0,0.0,90,0.00,,---,0.00,VWS V14.01,2013-08-20 06:00:00,
2013-08-20 02:02:00,65.4,62.1,29.95,NNW,335,0.0,0.0,89,0.00,,---,0.00,VWS V14.01,2013-08-20 06:02:00,
2013-08-20 02:03:00,65.4,62.1,29.95,NNW,336,0.0,0.0,89,0.00,,---,0.00,VWS V14.01,2013-08-20 06:03:00,
2013-08-20 02:04:00,65.5,62.2,29.95,NNW,336,0.0,0.0,89,0.00,,---,0.00,VWS V14.01,2013-08-20 06:04:00,
2013-08-20 02:06:00,65.6,62.3,29.95,NNW,332,0.0,0.0,89,0.00,,---,0.00,VWS V14.01,2013-08-20 06:06:00,
2013-08-20 02:07:00,65.8,62.5,29.95,NNW,331,0.0,0.0,89,0.00,,---,0.00,VWS V14.01,2013-08-20 06:07:00,
2013-08-20 02:09:00,65.9,62.2,29.95,NNW,335,0.0,0.0,88,0.00,,---,0.00,VWS V14.01,2013-08-20 06:09:00,
2013-08-20 02:10:00,65.9,62.2,29.95,NNW,335,0.0,0.0,88,0.00,,---,0.00,VWS V14.01,2013-08-20 06:10:00,
2013-08-20 02:12:00,65.9,62.2,29.96,NNW,338,0.0,0.0,88,0.00,,---,0.00,VWS V14.01,2013-08-20 06:12:00,
2013-08-20 02:14:00,65.8,62.2,29.96,NNW,340,0.0,0.0,88,0.00,,---,0.00,VWS V14.01,2013-08-20 06:14:00,
2013-08-20 02:15:00,65.8,62.2,29.96,NNW,341,0.0,0.0,88,0.00,,---,0.00,VWS V14.01,2013-08-20 06:15:00,
2013-08-20 02:17:00,65.6,62.3,29.96,NNW,341,0.0,0.0,89,0.00,,---,0.00,VWS V14.01,2013-08-20 06:17:00,
2013-08-20 02:18:00,65.5,62.2,29.96,NNW,343,0.0,0.0,89,0.00,,---,0.00,VWS V14.01,2013-08-20 06:18:00,
2013-08-20 02:19:00,65.4,62.1,29.95,NNW,342,0.0,0.0,89,0.00,,---,0.00,VWS V14.01,2013-08-20 06:19:00,
2013-08-20 02:20:00,65.3,62.0,29.96,NNW,342,0.0,0.0,89,0.00,,---,0.00,VWS V14.01,2013-08-20 06:20:00,
2013-08-20 02:22:00,65.1,62.1,29.96,NNW,341,0.0,0.0,90,0.00,,---,0.00,VWS V14.01,2013-08-20 06:22:00,
2013-08-20 02:23:00,65.0,62.0,29.96,NNW,342,0.0,0.0,90,0.00,,---,0.00,VWS V14.01,2013-08-20 06:23:00,
2013-08-20 02:25:00,64.9,62.2,29.96,NNW,342,0.0,0.0,91,0.00,,---,0.00,VWS V14.01,2013-08-20 06:25:00,
2013-08-20 02:26:00,64.8,62.1,29.96,NNW,342,0.0,0.0,91,0.00,,---,0.00,VWS V14.01,2013-08-20 06:26:00,
2013-08-20 02:29:00,64.6,61.9,29.96,NNW,343,0.0,0.0,91,0.00,,---,0.00,VWS V14.01,2013-08-20 06:29:00,
2013-08-20 02:31:00,64.4,61.7,29.96,NNW,341,0.0,0.0,91,0.00,,---,0.00,VWS V14.01,2013-08-20 06:31:00,
2013-08-20 02:32:00,64.3,61.6,29.96,NNW,341,0.0,0.0,91,0.00,,---,0.00,VWS V14.01,2013-08-20 06:32:00,
2013-08-20 02:35:00,64.1,61.7,29.96,NNW,343,0.0,0.0,92,0.00,,---,0.00,VWS V14.01,2013-08-20 06:35:00,
2013-08-20 02:37:00,64.1,61.7,29.96,NNW,343,0.0,0.0,92,0.00,,---,0.00,VWS V14.01,2013-08-20 06:37:00,
2013-08-20 02:38:00,64.0,61.9,29.96,NNW,343,0.0,0.0,93,0.00,,---,0.00,VWS V14.01,2013-08-20 06:38:00,
2013-08-20 02:42:00,63.9,61.8,29.96,NNW,342,0.0,0.0,93,0.00,,---,0.00,VWS V14.01,2013-08-20 06:42:00,
2013-08-20 02:43:00,63.8,61.7,29.96,NNW,343,0.0,0.0,93,0.00,,---,0.00,VWS V14.01,2013-08-20 06:43:00,
2013-08-20 02:44:00,63.8,61.7,29.96,NNW,343,0.0,0.0,93,0.00,,---,0.00,VWS V14.01,2013-08-20 06:44:00,
2013-08-20 02:48:00,63.6,61.5,29.96,NNW,342,0.0,0.0,93,0.00,,---,0.00,VWS V14.01,2013-08-20 06:48:00,
2013-08-20 02:49:00,63.5,61.4,29.96,NNW,343,0.0,0.0,93,0.00,,---,0.00,VWS V14.01,2013-08-20 06:49:00,
2013-08-20 02:50:00,63.4,61.3,29.96,NNW,343,0.0,0.0,93,0.00,,---,0.00,VWS V14.01,2013-08-20 06:50:00,
2013-08-20 02:53:00,63.4,61.7,29.96,NNW,342,0.0,0.0,94,0.00,,---,0.00,VWS V14.01,2013-08-20 06:53:00,
2013-08-20 02:54:00,63.3,61.5,29.96,NNW,342,0.0,0.0,94,0.00,,---,0.00,VWS V14.01,2013-08-20 06:54:00,
2013-08-20 02:55:00,63.3,61.5,29.96,NNW,342,0.0,0.0,94,0.00,,---,0.00,VWS V14.01,2013-08-20 06:55:00,
2013-08-20 02:59:00,63.3,61.5,29.96,NNW,345,0.0,0.0,94,0.00,,---,0.00,VWS V14.01,2013-08-20 06:59:00,
2013-08-20 03:00:00,63.3,61.5,29.96,NNW,345,0.0,0.0,94,0.00,,---,0.00,VWS V14.01,2013-08-20 07:00:00,
2013-08-20 03:01:00,63.4,61.7,29.97,NNW,345,0.0,0.0,94,0.00,,---,0.00,VWS V14.01,2013-08-20 07:01:00,
2013-08-20 03:05:00,63.3,61.5,29.97,NNW,345,0.0,0.0,94,0.00,,---,0.00,VWS V14.01,2013-08-20 07:05:00,
2013-08-20 03:06:00,63.4,61.7,29.97,NNW,345,0.0,0.0,94,0.00,,---,0.00,VWS V14.01,2013-08-20 07:06:00,
2013-08-20 03:07:00,63.4,61.7,29.97,NNW,345,0.0,0.0,94,0.00,,---,0.00,VWS V14.01,2013-08-20 07:07:00,
2013-08-20 03:10:00,63.3,61.5,29.97,NNW,345,0.0,0.0,94,0.00,,---,0.00,VWS V14.01,2013-08-20 07:10:00,
2013-08-20 03:11:00,63.3,61.5,29.97,NNW,347,0.0,0.0,94,0.00,,---,0.00,VWS V14.01,2013-08-20 07:11:00,
2013-08-20 03:12:00,63.3,61.5,29.97,North,349,0.0,0.0,94,0.00,,---,0.00,VWS V14.01,2013-08-20 07:12:00,
2013-08-20 03:16:00,63.2,61.5,29.97,North,349,0.0,0.0,94,0.00,,---,0.00,VWS V14.01,2013-08-20 07:16:00,
2013-08-20 03:17:00,63.1,61.3,29.97,NNW,345,0.0,0.0,94,0.00,,---,0.00,VWS V14.01,2013-08-20 07:17:00,
2013-08-20 03:18:00,63.0,61.2,29.97,North,352,0.0,0.0,94,0.00,,---,0.00,VWS V14.01,2013-08-20 07:18:00,
2013-08-20 03:21:00,62.9,61.2,29.97,North,350,0.0,0.0,94,0.00,,---,0.00,VWS V14.01,2013-08-20 07:21:00,
2013-08-20 03:22:00,62.9,61.2,29.97,North,349,0.0,0.0,94,0.00,,---,0.00,VWS V14.01,2013-08-20 07:22:00,
2013-08-20 03:23:00,62.9,61.5,29.96,NNW,347,0.0,0.0,95,0.00,,---,0.00,VWS V14.01,2013-08-20 07:23:00,
2013-08-20 03:24:00,62.9,61.5,29.97,North,349,0.0,0.0,95,0.00,,---,0.00,VWS V14.01,2013-08-20 07:24:00,
2013-08-20 03:26:00,62.9,61.5,29.96,North,350,0.0,0.0,95,0.00,,---,0.00,VWS V14.01,2013-08-20 07:26:00,
2013-08-20 03:27:00,62.9,61.5,29.96,NNW,348,0.0,0.0,95,0.00,,---,0.00,VWS V14.01,2013-08-20 07:27:00,
2013-08-20 03:28:00,62.9,61.5,29.97,North,351,0.0,0.0,95,0.00,,---,0.00,VWS V14.01,2013-08-20 07:28:00,
2013-08-20 03:31:00,62.9,61.5,29.97,NNW,348,0.0,0.0,95,0.00,,---,0.00,VWS V14.01,2013-08-20 07:31:00,
2013-08-20 03:32:00,62.9,61.5,29.97,NNW,348,0.0,0.0,95,0.00,,---,0.00,VWS V14.01,2013-08-20 07:32:00,
2013-08-20 03:33:00,62.8,61.3,29.97,NNW,348,0.0,0.0,95,0.00,,---,0.00,VWS V14.01,2013-08-20 07:33:00,
2013-08-20 03:34:00,62.8,61.3,29.97,North,349,0.0,0.0,95,0.00,,---,0.00,VWS V14.01,2013-08-20 07:34:00,
2013-08-20 03:36:00,62.8,61.3,29.97,North,349,0.0,0.0,95,0.00,,---,0.00,VWS V14.01,2013-08-20 07:36:00,
2013-08-20 03:39:00,62.7,61.2,29.97,NNW,347,0.0,0.0,95,0.00,,---,0.00,VWS V14.01,2013-08-20 07:39:00,
2013-08-20 03:40:00,62.6,61.2,29.97,North,349,0.0,0.0,95,0.00,,---,0.00,VWS V14.01,2013-08-20 07:40:00,
2013-08-20 03:41:00,62.6,61.2,29.97,NNW,345,0.0,0.0,95,0.00,,---,0.00,VWS V14.01,2013-08-20 07:41:00,
2013-08-20 03:42:00,62.5,61.0,29.97,NNW,339,0.0,0.0,95,0.00,,---,0.00,VWS V14.01,2013-08-20 07:42:00,
2013-08-20 03:44:00,62.4,61.0,29.97,North,349,0.0,0.0,95,0.00,,---,0.00,VWS V14.01,2013-08-20 07:44:00,
2013-08-20 03:47:00,62.5,61.0,29.97,North,349,0.0,0.0,95,0.00,,---,0.00,VWS V14.01,2013-08-20 07:47:00,
2013-08-20 03:48:00,62.5,61.0,29.97,NNW,345,0.0,0.0,95,0.00,,---,0.00,VWS V14.01,2013-08-20 07:48:00,
2013-08-20 03:50:00,62.5,61.0,29.97,NNW,347,0.0,0.0,95,0.00,,---,0.00,VWS V14.01,2013-08-20 07:50:00,
2013-08-20 03:52:00,62.6,61.2,29.97,NNW,345,0.0,0.0,95,0.00,,---,0.00,VWS V14.01,2013-08-20 07:52:00,
2013-08-20 03:53:00,62.6,61.2,29.97,NNW,339,0.0,0.0,95,0.00,,---,0.00,VWS V14.01,2013-08-20 07:53:00,
2013-08-20 03:54:00,62.6,61.2,29.97,NNW,336,0.0,0.0,95,0.00,,---,0.00,VWS V14.01,2013-08-20 07:54:00,
2013-08-20 03:55:00,62.6,61.2,29.97,NNW,336,0.0,0.0,95,0.00,,---,0.00,VWS V14.01,2013-08-20 07:55:00,
2013-08-20 03:58:00,62.6,61.2,29.97,NNW,336,0.0,0.0,95,0.00,,---,0.00,VWS V14.01,2013-08-20 07:58:00,
2013-08-20 03:59:00,62.6,61.5,29.97,NNW,336,0.0,0.0,96,0.00,,---,0.00,VWS V14.01,2013-08-20 07:59:00,
2013-08-20 04:00:00,62.7,61.5,29.97,NNW,338,0.0,0.0,96,0.00,,---,0.00,VWS V14.01,2013-08-20 08:00:00,
2013-08-20 04:03:00,62.7,61.2,29.97,NNW,345,0.0,0.0,95,0.00,,---,0.00,VWS V14.01,2013-08-20 08:03:00,
2013-08-20 04:04:00,62.8,61.3,29.97,NNW,345,0.0,0.0,95,0.00,,---,0.00,VWS V14.01,2013-08-20 08:04:00,
2013-08-20 04:05:00,62.8,61.3,29.97,NNW,347,0.0,0.0,95,0.00,,---,0.00,VWS V14.01,2013-08-20 08:05:00,
2013-08-20 04:07:00,62.8,61.3,29.97,North,352,0.0,0.0,95,0.00,,---,0.00,VWS V14.01,2013-08-20 08:07:00,
2013-08-20 04:08:00,62.7,61.2,29.97,NNW,345,0.0,0.0,95,0.00,,---,0.00,VWS V14.01,2013-08-20 08:08:00,
2013-08-20 04:09:00,62.6,61.2,29.97,NNW,347,0.0,0.0,95,0.00,,---,0.00,VWS V14.01,2013-08-20 08:09:00,
2013-08-20 04:11:00,62.5,60.8,29.97,North,350,0.0,0.0,94,0.00,,---,0.00,VWS V14.01,2013-08-20 08:11:00,
2013-08-20 04:12:00,62.4,60.7,29.97,North,353,0.0,0.0,94,0.00,,---,0.00,VWS V14.01,2013-08-20 08:12:00,
2013-08-20 04:13:00,62.3,60.6,29.97,North,353,0.0,0.0,94,0.00,,---,0.00,VWS V14.01,2013-08-20 08:13:00,
2013-08-20 04:15:00,62.2,60.8,29.97,North,353,0.0,0.0,95,0.00,,---,0.00,VWS V14.01,2013-08-20 08:15:00,
2013-08-20 04:16:00,62.2,60.8,29.97,North,353,0.0,0.0,95,0.00,,---,0.00,VWS V14.01,2013-08-20 08:16:00,
2013-08-20 04:17:00,62.1,60.7,29.97,North,351,0.0,0.0,95,0.00,,---,0.00,VWS V14.01,2013-08-20 08:17:00,
2013-08-20 04:19:00,62.0,60.6,29.97,North,350,0.0,0.0,95,0.00,,---,0.00,VWS V14.01,2013-08-20 08:19:00,
2013-08-20 04:21:00,62.0,60.6,29.97,North,352,0.0,0.0,95,0.00,,---,0.00,VWS V14.01,2013-08-20 08:21:00,
2013-08-20 04:22:00,61.9,60.5,29.97,North,352,0.0,0.0,95,0.00,,---,0.00,VWS V14.01,2013-08-20 08:22:00,
2013-08-20 04:25:00,61.7,60.3,29.97,NNW,345,0.0,0.0,95,0.00,,---,0.00,VWS V14.01,2013-08-20 08:25:00,
2013-08-20 04:26:00,61.7,60.3,29.97,NNW,347,0.0,0.0,95,0.00,,---,0.00,VWS V14.01,2013-08-20 08:26:00,
2013-08-20 04:27:00,61.7,60.3,29.97,NNW,348,0.0,0.0,95,0.00,,---,0.00,VWS V14.01,2013-08-20 08:27:00,
2013-08-20 04:29:00,61.7,60.3,29.97,NNW,342,0.0,0.0,95,0.00,,---,0.00,VWS V14.01,2013-08-20 08:29:00,
2013-08-20 04:30:00,61.6,60.2,29.97,NNW,333,0.0,0.0,95,0.00,,---,0.00,VWS V14.01,2013-08-20 08:30:00,
2013-08-20 04:31:00,61.6,60.2,29.97,NNW,345,0.0,0.0,95,0.00,,---,0.00,VWS V14.01,2013-08-20 08:31:00,
2013-08-20 04:32:00,61.6,60.2,29.97,NNW,345,0.0,0.0,95,0.00,,---,0.00,VWS V14.01,2013-08-20 08:32:00,
2013-08-20 04:33:00,61.6,60.2,29.97,NNW,345,0.0,0.0,95,0.00,,---,0.00,VWS V14.01,2013-08-20 08:33:00,
2013-08-20 04:34:00,61.7,60.3,29.97,North,349,0.0,0.0,95,0.00,,---,0.00,VWS V14.01,2013-08-20 08:34:00,
2013-08-20 04:36:00,61.8,60.7,29.98,North,350,0.0,0.0,96,0.00,,---,0.00,VWS V14.01,2013-08-20 08:36:00,
2013-08-20 04:37:00,61.8,60.7,29.98,North,349,0.0,0.0,96,0.00,,---,0.00,VWS V14.01,2013-08-20 08:37:00,
2013-08-20 04:38:00,61.9,60.8,29.98,NNW,347,0.0,0.0,96,0.00,,---,0.00,VWS V14.01,2013-08-20 08:38:00,
2013-08-20 04:39:00,61.8,60.7,29.98,NNW,347,0.0,0.0,96,0.00,,---,0.00,VWS V14.01,2013-08-20 08:39:00,
2013-08-20 04:40:00,61.9,60.8,29.98,NNW,347,0.0,0.0,96,0.00,,---,0.00,VWS V14.01,2013-08-20 08:40:00,
2013-08-20 04:41:00,61.9,60.8,29.98,North,349,0.0,0.0,96,0.00,,---,0.00,VWS V14.01,2013-08-20 08:41:00,
2013-08-20 04:42:00,61.9,60.8,29.98,North,350,0.0,0.0,96,0.00,,---,0.00,VWS V14.01,2013-08-20 08:42:00,
2013-08-20 04:44:00,61.9,60.8,29.98,North,353,0.0,0.0,96,0.00,,---,0.00,VWS V14.01,2013-08-20 08:44:00,
2013-08-20 04:46:00,62.0,60.8,29.98,North,353,0.0,0.0,96,0.00,,---,0.00,VWS V14.01,2013-08-20 08:46:00,
2013-08-20 04:47:00,61.9,60.8,29.98,North,352,0.0,0.0,96,0.00,,---,0.00,VWS V14.01,2013-08-20 08:47:00,
2013-08-20 04:48:00,61.9,60.8,29.98,North,352,0.0,0.0,96,0.00,,---,0.00,VWS V14.01,2013-08-20 08:48:00,
2013-08-20 04:50:00,61.9,60.5,29.98,North,352,0.0,0.0,95,0.00,,---,0.00,VWS V14.01,2013-08-20 08:50:00,
2013-08-20 04:51:00,61.8,60.4,29.98,North,352,0.0,0.0,95,0.00,,---,0.00,VWS V14.01,2013-08-20 08:51:00,
2013-08-20 04:52:00,61.8,60.4,29.98,North,351,0.0,0.0,95,0.00,,---,0.00,VWS V14.01,2013-08-20 08:52:00,
2013-08-20 04:53:00,61.8,60.4,29.98,North,351,0.0,0.0,95,0.00,,---,0.00,VWS V14.01,2013-08-20 08:53:00,
2013-08-20 04:55:00,61.7,60.3,29.98,North,349,0.0,0.0,95,0.00,,---,0.00,VWS V14.01,2013-08-20 08:55:00,
2013-08-20 04:56:00,61.7,60.3,29.98,North,352,0.0,0.0,95,0.00,,---,0.00,VWS V14.01,2013-08-20 08:56:00,
2013-08-20 04:58:00,61.6,60.2,29.98,NNW,347,0.0,0.0,95,0.00,,---,0.00,VWS V14.01,2013-08-20 08:58:00,
2013-08-20 05:01:00,61.6,60.5,29.98,NNW,347,0.0,0.0,96,0.00,,---,0.00,VWS V14.01,2013-08-20 09:01:00,
2013-08-20 05:03:00,61.6,60.5,29.99,NNW,348,0.0,0.0,96,0.00,,---,0.00,VWS V14.01,2013-08-20 09:03:00,
2013-08-20 05:06:00,61.7,60.5,29.99,North,349,0.0,0.0,96,0.00,,---,0.00,VWS V14.01,2013-08-20 09:06:00,
2013-08-20 05:07:00,61.7,60.5,29.99,North,349,0.0,0.0,96,0.00,,---,0.00,VWS V14.01,2013-08-20 09:07:00,
2013-08-20 05:09:00,61.8,60.7,29.99,North,349,0.0,0.0,96,0.00,,---,0.00,VWS V14.01,2013-08-20 09:09:00,
2013-08-20 05:11:00,61.7,60.5,29.99,North,350,0.0,0.0,96,0.00,,---,0.00,VWS V14.01,2013-08-20 09:11:00,
2013-08-20 05:12:00,61.7,60.5,29.99,North,349,0.0,0.0,96,0.00,,---,0.00,VWS V14.01,2013-08-20 09:12:00,
2013-08-20 05:14:00,61.7,60.5,29.99,North,349,0.0,0.0,96,0.00,,---,0.00,VWS V14.01,2013-08-20 09:14:00,
2013-08-20 05:15:00,61.7,60.5,29.99,North,350,0.0,0.0,96,0.00,,---,0.00,VWS V14.01,2013-08-20 09:15:00,
2013-08-20 05:16:00,61.7,60.5,29.99,North,350,0.0,0.0,96,0.00,,---,0.00,VWS V14.01,2013-08-20 09:16:00,
2013-08-20 05:17:00,61.7,60.5,29.99,NNW,348,0.0,0.0,96,0.00,,---,0.00,VWS V14.01,2013-08-20 09:17:00,
2013-08-20 05:19:00,61.7,60.5,29.99,North,350,0.0,0.0,96,0.00,,---,0.00,VWS V14.01,2013-08-20 09:19:00,
2013-08-20 05:21:00,61.7,60.5,29.99,North,349,0.0,0.0,96,0.00,,---,0.00,VWS V14.01,2013-08-20 09:21:00,
2013-08-20 05:22:00,61.7,60.5,29.99,NNW,348,0.0,0.0,96,0.00,,---,0.00,VWS V14.01,2013-08-20 09:22:00,
2013-08-20 05:23:00,61.7,60.5,29.99,NNW,348,0.0,0.0,96,0.00,,---,0.00,VWS V14.01,2013-08-20 09:23:00,
2013-08-20 05:25:00,61.7,60.5,29.99,North,349,0.0,0.0,96,0.00,,---,0.00,VWS V14.01,2013-08-20 09:25:00,
2013-08-20 05:26:00,61.8,60.7,29.99,NNW,347,0.0,0.0,96,0.00,,---,0.00,VWS V14.01,2013-08-20 09:26:00,
2013-08-20 05:27:00,61.8,60.7,29.99,NNW,348,0.0,0.0,96,0.00,,---,0.00,VWS V14.01,2013-08-20 09:27:00,
2013-08-20 05:28:00,61.8,60.7,29.99,NNW,348,0.0,0.0,96,0.00,,---,0.00,VWS V14.01,2013-08-20 09:28:00,
2013-08-20 05:30:00,61.8,60.7,30.00,North,352,0.0,0.0,96,0.00,,---,0.00,VWS V14.01,2013-08-20 09:30:00,
2013-08-20 05:32:00,61.8,60.7,29.99,North,352,0.0,0.0,96,0.00,,---,0.00,VWS V14.01,2013-08-20 09:32:00,
2013-08-20 05:34:00,61.8,60.7,29.99,North,350,0.0,0.0,96,0.00,,---,0.00,VWS V14.01,2013-08-20 09:34:00,
2013-08-20 05:36:00,61.8,60.7,30.00,NNW,328,0.0,0.0,96,0.00,,---,0.00,VWS V14.01,2013-08-20 09:36:00,
2013-08-20 05:38:00,61.8,60.7,30.00,NNW,340,0.0,0.0,96,0.00,,---,0.00,VWS V14.01,2013-08-20 09:38:00,
2013-08-20 05:39:00,61.7,60.5,30.00,NNW,340,0.0,0.0,96,0.00,,---,0.00,VWS V14.01,2013-08-20 09:39:00,
2013-08-20 05:41:00,61.7,60.5,30.00,NNW,340,0.0,0.0,96,0.00,,---,0.00,VWS V14.01,2013-08-20 09:41:00,
2013-08-20 05:43:00,61.7,60.5,30.00,NNW,340,0.0,0.0,96,0.00,,---,0.00,VWS V14.01,2013-08-20 09:43:00,
2013-08-20 05:45:00,61.7,60.5,30.00,NNW,340,0.0,0.0,96,0.00,,---,0.00,VWS V14.01,2013-08-20 09:45:00,
2013-08-20 05:46:00,61.7,60.5,30.00,NNW,348,0.0,0.0,96,0.00,,---,0.00,VWS V14.01,2013-08-20 09:46:00,
2013-08-20 05:48:00,61.7,60.5,30.00,NNW,345,0.0,0.0,96,0.00,,---,0.00,VWS V14.01,2013-08-20 09:48:00,
2013-08-20 05:49:00,61.6,60.5,30.00,NNW,342,0.0,0.0,96,0.00,,---,0.00,VWS V14.01,2013-08-20 09:49:00,
2013-08-20 05:50:00,61.6,60.5,30.00,NNW,341,0.0,0.0,96,0.00,,---,0.00,VWS V14.01,2013-08-20 09:50:00,
2013-08-20 05:51:00,61.6,60.5,30.00,NNW,343,0.0,0.0,96,0.00,,---,0.00,VWS V14.01,2013-08-20 09:51:00,
2013-08-20 05:52:00,61.6,60.5,30.00,NNW,343,0.0,0.0,96,0.00,,---,0.00,VWS V14.01,2013-08-20 09:52:00,
2013-08-20 05:54:00,61.6,60.5,30.00,NNW,345,0.0,0.0,96,0.00,,---,0.00,VWS V14.01,2013-08-20 09:54:00,
2013-08-20 05:55:00,61.6,60.5,30.00,NNW,345,0.0,0.0,96,0.00,,---,0.00,VWS V14.01,2013-08-20 09:55:00,
2013-08-20 05:56:00,61.6,60.5,30.00,NNW,345,0.0,0.0,96,0.00,,---,0.00,VWS V14.01,2013-08-20 09:56:00,
2013-08-20 05:57:00,61.6,60.5,30.00,NNW,345,0.0,0.0,96,0.00,,---,0.00,VWS V14.01,2013-08-20 09:57:00,
2013-08-20 05:58:00,61.6,60.5,30.00,NNW,346,0.0,0.0,96,0.00,,---,0.00,VWS V14.01,2013-08-20 09:58:00,
2013-08-20 06:00:00,61.6,60.5,30.00,NNW,347,0.0,0.0,96,0.00,,---,0.00,VWS V14.01,2013-08-20 10:00:00,
2013-08-20 06:01:00,61.6,60.5,30.00,NNW,343,0.0,0.0,96,0.00,,---,0.00,VWS V14.01,2013-08-20 10:01:00,
2013-08-20 06:03:00,61.6,60.5,30.01,North,350,0.0,0.0,96,0.00,,---,0.00,VWS V14.01,2013-08-20 10:03:00,
2013-08-20 06:04:00,61.6,60.5,30.00,North,350,0.0,0.0,96,0.00,,---,0.00,VWS V14.01,2013-08-20 10:04:00,
2013-08-20 06:05:00,61.6,60.5,30.01,North,350,0.0,0.0,96,0.00,,---,0.00,VWS V14.01,2013-08-20 10:05:00,
2013-08-20 06:06:00,61.6,60.5,30.01,North,349,0.0,0.0,96,0.00,,---,0.00,VWS V14.01,2013-08-20 10:06:00,
2013-08-20 06:07:00,61.6,60.5,30.01,North,349,0.0,0.0,96,0.00,,---,0.00,VWS V14.01,2013-08-20 10:07:00,
2013-08-20 06:08:00,61.5,60.3,30.01,North,350,0.0,0.0,96,0.00,,---,0.00,VWS V14.01,2013-08-20 10:08:00,
2013-08-20 06:09:00,61.4,60.2,30.01,NNW,347,0.0,0.0,96,0.00,,---,0.00,VWS V14.01,2013-08-20 10:09:00,
2013-08-20 06:11:00,61.4,60.2,30.01,NNW,347,0.0,0.0,96,0.00,,---,0.00,VWS V14.01,2013-08-20 10:11:00,
2013-08-20 06:12:00,61.4,60.2,30.01,NNW,347,0.0,0.0,96,0.00,,---,0.00,VWS V14.01,2013-08-20 10:12:00,
2013-08-20 06:13:00,61.3,60.2,30.01,NNW,347,0.0,0.0,96,0.00,,---,0.00,VWS V14.01,2013-08-20 10:13:00,
2013-08-20 06:14:00,61.3,60.2,30.01,NNW,347,0.0,0.0,96,0.00,,---,0.00,VWS V14.01,2013-08-20 10:14:00,
2013-08-20 06:17:00,61.3,60.2,30.01,North,352,0.0,0.0,96,0.00,,---,0.00,VWS V14.01,2013-08-20 10:17:00,
2013-08-20 06:19:00,61.3,60.2,30.01,North,351,0.0,1.0,96,0.00,,---,0.00,VWS V14.01,2013-08-20 10:19:00,
2013-08-20 06:20:00,61.3,60.2,30.01,North,352,0.0,1.0,96,0.00,,---,0.00,VWS V14.01,2013-08-20 10:20:00,
2013-08-20 06:22:00,61.2,60.0,30.01,North,352,0.0,1.0,96,0.00,,---,0.00,VWS V14.01,2013-08-20 10:22:00,
2013-08-20 06:23:00,61.2,60.0,30.01,North,351,0.0,1.0,96,0.00,,---,0.00,VWS V14.01,2013-08-20 10:23:00,
2013-08-20 06:24:00,61.2,60.0,30.01,North,352,0.0,1.0,96,0.00,,---,0.00,VWS V14.01,2013-08-20 10:24:00,
2013-08-20 06:25:00,61.2,60.0,30.01,North,349,0.0,1.0,96,0.00,,---,0.00,VWS V14.01,2013-08-20 10:25:00,
2013-08-20 06:26:00,61.2,60.0,30.01,NNW,348,0.0,1.0,96,0.00,,---,0.00,VWS V14.01,2013-08-20 10:26:00,
2013-08-20 06:28:00,61.2,60.0,30.01,North,350,0.0,0.0,96,0.00,,---,0.00,VWS V14.01,2013-08-20 10:28:00,
2013-08-20 06:29:00,61.2,60.0,30.01,North,350,0.0,0.0,96,0.00,,---,0.00,VWS V14.01,2013-08-20 10:29:00,
2013-08-20 06:30:00,61.1,60.0,30.01,NNW,347,0.0,0.0,96,0.00,,---,0.00,VWS V14.01,2013-08-20 10:30:00,
2013-08-20 06:31:00,61.1,60.0,30.01,NNW,347,0.0,0.0,96,0.00,,---,0.00,VWS V14.01,2013-08-20 10:31:00,
2013-08-20 06:33:00,61.0,59.9,30.01,NNW,347,0.0,0.0,96,0.00,,---,0.00,VWS V14.01,2013-08-20 10:33:00,
2013-08-20 06:34:00,61.1,60.0,30.01,NNW,347,0.0,0.0,96,0.00,,---,0.00,VWS V14.01,2013-08-20 10:34:00,
2013-08-20 06:35:00,61.1,60.0,30.01,NNW,347,0.0,0.0,96,0.00,,---,0.00,VWS V14.01,2013-08-20 10:35:00,
2013-08-20 06:36:00,61.1,60.0,30.01,NNW,347,0.0,0.0,96,0.00,,---,0.00,VWS V14.01,2013-08-20 10:36:00,
2013-08-20 06:39:00,61.3,60.2,30.01,North,349,0.0,0.0,96,0.00,,---,0.00,VWS V14.01,2013-08-20 10:39:00,
2013-08-20 06:41:00,61.4,60.5,30.02,NNW,348,0.0,0.0,97,0.00,,---,0.00,VWS V14.01,2013-08-20 10:41:00,
2013-08-20 06:44:00,61.6,60.7,30.02,NNW,345,0.0,0.0,97,0.00,,---,0.00,VWS V14.01,2013-08-20 10:44:00,
2013-08-20 06:45:00,61.6,60.7,30.02,NNW,347,0.0,0.0,97,0.00,,---,0.00,VWS V14.01,2013-08-20 10:45:00,
2013-08-20 06:46:00,61.7,60.8,30.02,NNW,347,0.0,0.0,97,0.00,,---,0.00,VWS V14.01,2013-08-20 10:46:00,
2013-08-20 06:47:00,61.8,60.9,30.02,NNW,347,0.0,0.0,97,0.00,,---,0.00,VWS V14.01,2013-08-20 10:47:00,
2013-08-20 06:49:00,61.9,61.0,30.02,NNW,347,0.0,0.0,97,0.00,,---,0.00,VWS V14.01,2013-08-20 10:49:00,
2013-08-20 06:51:00,62.0,61.1,30.02,NNW,347,0.0,0.0,97,0.00,,---,0.00,VWS V14.01,2013-08-20 10:51:00,
2013-08-20 06:52:00,62.1,61.2,30.02,NNW,347,0.0,0.0,97,0.00,,---,0.00,VWS V14.01,2013-08-20 10:52:00,
2013-08-20 06:53:00,62.1,61.2,30.02,NNW,347,0.0,0.0,97,0.00,,---,0.00,VWS V14.01,2013-08-20 10:53:00,
2013-08-20 06:54:00,62.1,61.2,30.02,NNW,347,0.0,0.0,97,0.00,,---,0.00,VWS V14.01,2013-08-20 10:54:00,
2013-08-20 06:56:00,62.2,61.3,30.02,NNW,347,0.0,0.0,97,0.00,,---,0.00,VWS V14.01,2013-08-20 10:56:00,
2013-08-20 06:57:00,62.2,61.3,30.02,NNW,347,0.0,0.0,97,0.00,,---,0.00,VWS V14.01,2013-08-20 10:57:00,
2013-08-20 06:58:00,62.2,61.3,30.02,NNW,347,0.0,0.0,97,0.00,,---,0.00,VWS V14.01,2013-08-20 10:58:00,
2013-08-20 07:00:00,62.3,61.4,30.02,NNW,347,0.0,0.0,97,0.00,,---,0.00,VWS V14.01,2013-08-20 11:00:00,
2013-08-20 07:02:00,62.3,61.2,30.02,North,349,0.0,0.0,96,0.00,,---,0.00,VWS V14.01,2013-08-20 11:02:00,
2013-08-20 07:03:00,62.4,61.2,30.02,NNW,348,0.0,0.0,96,0.00,,---,0.00,VWS V14.01,2013-08-20 11:03:00,
2013-08-20 07:05:00,62.5,61.6,30.03,North,349,0.0,0.0,97,0.00,,---,0.00,VWS V14.01,2013-08-20 11:05:00,
2013-08-20 07:08:00,62.7,61.5,30.03,NNW,348,0.0,0.0,96,0.00,,---,0.00,VWS V14.01,2013-08-20 11:08:00,
2013-08-20 07:09:00,62.7,61.5,30.02,North,349,0.0,0.0,96,0.00,,---,0.00,VWS V14.01,2013-08-20 11:09:00,
2013-08-20 07:10:00,62.8,61.7,30.03,North,349,0.0,0.0,96,0.00,,---,0.00,VWS V14.01,2013-08-20 11:10:00,
2013-08-20 07:14:00,63.1,61.9,30.02,North,349,0.0,0.0,96,0.00,,---,0.00,VWS V14.01,2013-08-20 11:14:00,
2013-08-20 07:15:00,63.2,62.0,30.03,North,349,0.0,0.0,96,0.00,,---,0.00,VWS V14.01,2013-08-20 11:15:00,
2013-08-20 07:16:00,63.2,62.0,30.03,North,352,0.0,0.0,96,0.00,,---,0.00,VWS V14.01,2013-08-20 11:16:00,
2013-08-20 07:19:00,63.3,62.1,30.03,NNW,348,0.0,0.0,96,0.00,,---,0.00,VWS V14.01,2013-08-20 11:19:00,
2013-08-20 07:20:00,63.3,62.1,30.03,North,349,0.0,0.0,96,0.00,,---,0.00,VWS V14.01,2013-08-20 11:20:00,
2013-08-20 07:21:00,63.3,62.1,30.03,NNW,347,0.0,0.0,96,0.00,,---,0.00,VWS V14.01,2013-08-20 11:21:00,
2013-08-20 07:23:00,63.4,62.2,30.03,North,349,0.0,0.0,96,0.00,,---,0.00,VWS V14.01,2013-08-20 11:23:00,
2013-08-20 07:24:00,63.4,62.2,30.03,North,349,0.0,0.0,96,0.00,,---,0.00,VWS V14.01,2013-08-20 11:24:00,
2013-08-20 07:25:00,63.5,62.3,30.03,North,349,0.0,0.0,96,0.00,,---,0.00,VWS V14.01,2013-08-20 11:25:00,
2013-08-20 07:26:00,63.5,62.3,30.03,North,349,0.0,0.0,96,0.00,,---,0.00,VWS V14.01,2013-08-20 11:26:00,
2013-08-20 07:29:00,63.6,62.4,30.03,North,350,0.0,0.0,96,0.00,,---,0.00,VWS V14.01,2013-08-20 11:29:00,
2013-08-20 07:30:00,63.7,62.5,30.03,North,350,0.0,0.0,96,0.00,,---,0.00,VWS V14.01,2013-08-20 11:30:00,
2013-08-20 07:32:00,63.8,62.6,30.03,NNW,348,0.0,0.0,96,0.00,,---,0.00,VWS V14.01,2013-08-20 11:32:00,
2013-08-20 07:35:00,63.9,62.4,30.03,North,350,0.0,0.0,95,0.00,,---,0.00,VWS V14.01,2013-08-20 11:35:00,
2013-08-20 07:37:00,64.0,62.5,30.03,North,349,0.0,0.0,95,0.00,,---,0.00,VWS V14.01,2013-08-20 11:37:00,
2013-08-20 07:38:00,64.1,62.6,30.03,North,350,0.0,0.0,95,0.00,,---,0.00,VWS V14.01,2013-08-20 11:38:00,
2013-08-20 07:42:00,64.4,62.9,30.03,North,352,0.0,0.0,95,0.00,,---,0.00,VWS V14.01,2013-08-20 11:42:00,
2013-08-20 07:43:00,64.6,63.1,30.03,North,352,0.0,0.0,95,0.00,,---,0.00,VWS V14.01,2013-08-20 11:43:00,
2013-08-20 07:44:00,64.7,63.2,30.03,North,352,0.0,0.0,95,0.00,,---,0.00,VWS V14.01,2013-08-20 11:44:00,
2013-08-20 07:47:00,65.2,63.4,30.03,North,352,0.0,0.0,94,0.00,,---,0.00,VWS V14.01,2013-08-20 11:47:00,
2013-08-20 07:48:00,65.3,63.5,30.03,North,352,0.0,0.0,94,0.00,,---,0.00,VWS V14.01,2013-08-20 11:48:00,
2013-08-20 07:49:00,65.4,63.6,30.03,North,352,0.0,0.0,94,0.00,,---,0.00,VWS V14.01,2013-08-20 11:49:00,
2013-08-20 07:53:00,66.1,64.0,30.03,North,352,0.0,0.0,93,0.00,,---,0.00,VWS V14.01,2013-08-20 11:53:00,
2013-08-20 07:54:00,66.2,64.1,30.03,North,354,0.0,0.0,93,0.00,,---,0.00,VWS V14.01,2013-08-20 11:54:00,
2013-08-20 07:55:00,66.3,63.6,30.03,North,354,0.0,0.0,91,0.00,,---,0.00,VWS V14.01,2013-08-20 11:55:00,
2013-08-20 07:56:00,66.3,63.6,30.03,North,354,0.0,0.0,91,0.00,,---,0.00,VWS V14.01,2013-08-20 11:56:00,
2013-08-20 07:59:00,66.5,63.5,30.03,North,353,0.0,0.0,90,0.00,,---,0.00,VWS V14.01,2013-08-20 11:59:00,
2013-08-20 08:01:00,66.6,63.6,30.03,North,354,0.0,0.0,90,0.00,,---,0.00,VWS V14.01,2013-08-20 12:01:00,
2013-08-20 08:03:00,66.8,63.5,30.03,North,354,0.0,0.0,89,0.00,,---,0.00,VWS V14.01,2013-08-20 12:03:00,
2013-08-20 08:05:00,66.9,63.6,30.03,North,353,0.0,0.0,89,0.00,,---,0.00,VWS V14.01,2013-08-20 12:05:00,
2013-08-20 08:06:00,67.1,63.8,30.03,North,353,0.0,0.0,89,0.00,,---,0.00,VWS V14.01,2013-08-20 12:06:00,
2013-08-20 08:07:00,67.2,63.5,30.03,North,353,0.0,0.0,88,0.00,,---,0.00,VWS V14.01,2013-08-20 12:07:00,
2013-08-20 08:09:00,67.3,63.6,30.03,North,353,0.0,0.0,88,0.00,,---,0.00,VWS V14.01,2013-08-20 12:09:00,
2013-08-20 08:10:00,67.4,63.4,30.03,North,353,0.0,0.0,87,0.00,,---,0.00,VWS V14.01,2013-08-20 12:10:00,
2013-08-20 08:12:00,67.5,63.5,30.03,North,353,0.0,0.0,87,0.00,,---,0.00,VWS V14.01,2013-08-20 12:12:00,
2013-08-20 08:13:00,67.6,63.6,30.03,North,352,0.0,0.0,87,0.00,,---,0.00,VWS V14.01,2013-08-20 12:13:00,
2013-08-20 08:14:00,67.7,63.7,30.03,North,349,0.0,0.0,87,0.00,,---,0.00,VWS V14.01,2013-08-20 12:14:00,
2013-08-20 08:15:00,67.9,63.9,30.03,NNW,348,0.0,0.0,87,0.00,,---,0.00,VWS V14.01,2013-08-20 12:15:00,
2013-08-20 08:17:00,68.3,64.3,30.04,NNW,347,0.0,0.0,87,0.00,,---,0.00,VWS V14.01,2013-08-20 12:17:00,
2013-08-20 08:19:00,68.6,64.2,30.04,NNW,347,0.0,0.0,86,0.00,,---,0.00,VWS V14.01,2013-08-20 12:19:00,
2013-08-20 08:20:00,68.8,64.4,30.04,NNW,347,0.0,0.0,86,0.00,,---,0.00,VWS V14.01,2013-08-20 12:20:00,
2013-08-20 08:22:00,69.3,64.6,30.04,North,349,0.0,0.0,85,0.00,,---,0.00,VWS V14.01,2013-08-20 12:22:00,
2013-08-20 08:23:00,69.4,64.7,30.04,North,351,0.0,0.0,85,0.00,,---,0.00,VWS V14.01,2013-08-20 12:23:00,
2013-08-20 08:24:00,69.5,64.8,30.04,North,352,0.0,0.0,85,0.00,,---,0.00,VWS V14.01,2013-08-20 12:24:00,
2013-08-20 08:25:00,69.6,64.6,30.04,North,354,0.0,0.0,84,0.00,,---,0.00,VWS V14.01,2013-08-20 12:25:00,
2013-08-20 08:26:00,69.6,64.6,30.04,East,97,0.0,0.0,84,0.00,,---,0.00,VWS V14.01,2013-08-20 12:26:00,
2013-08-20 08:28:00,69.6,64.6,30.04,East,98,0.0,0.0,84,0.00,,---,0.00,VWS V14.01,2013-08-20 12:28:00,
2013-08-20 08:29:00,69.6,64.9,30.04,East,86,0.0,1.0,85,0.00,,---,0.00,VWS V14.01,2013-08-20 12:29:00,
2013-08-20 08:30:00,69.6,64.9,30.04,East,84,0.0,1.0,85,0.00,,---,0.00,VWS V14.01,2013-08-20 12:30:00,
2013-08-20 08:31:00,69.7,65.0,30.04,SE,146,0.0,1.0,85,0.00,,---,0.00,VWS V14.01,2013-08-20 12:31:00,
2013-08-20 08:32:00,69.7,65.0,30.04,SE,131,0.0,1.0,85,0.00,,---,0.00,VWS V14.01,2013-08-20 12:32:00,
2013-08-20 08:35:00,70.1,65.4,30.04,SE,142,0.0,1.0,85,0.00,,---,0.00,VWS V14.01,2013-08-20 12:35:00,
2013-08-20 08:37:00,70.4,65.7,30.04,SE,138,0.0,1.0,85,0.00,,---,0.00,VWS V14.01,2013-08-20 12:37:00,
2013-08-20 08:38:00,70.4,65.7,30.04,SSE,149,0.0,1.0,85,0.00,,---,0.00,VWS V14.01,2013-08-20 12:38:00,
2013-08-20 08:40:00,70.1,65.1,30.04,SSE,149,2.0,4.0,84,0.00,,---,0.00,VWS V14.01,2013-08-20 12:40:00,
2013-08-20 08:42:00,70.1,65.1,30.04,SSE,159,0.0,4.0,84,0.00,,---,0.00,VWS V14.01,2013-08-20 12:42:00,
2013-08-20 08:43:00,70.1,65.1,30.04,SSE,156,1.0,4.0,84,0.00,,---,0.00,VWS V14.01,2013-08-20 12:43:00,
2013-08-20 08:46:00,70.4,65.3,30.04,SE,137,1.0,4.0,84,0.00,,---,0.00,VWS V14.01,2013-08-20 12:46:00,
2013-08-20 08:48:00,70.7,65.6,30.04,East,101,0.0,4.0,84,0.00,,---,0.00,VWS V14.01,2013-08-20 12:48:00,
2013-08-20 08:49:00,70.8,65.4,30.04,ENE,57,1.0,4.0,83,0.00,,---,0.00,VWS V14.01,2013-08-20 12:49:00,
2013-08-20 08:51:00,70.9,65.1,30.04,SE,146,2.0,4.0,82,0.00,,---,0.00,VWS V14.01,2013-08-20 12:51:00,
2013-08-20 08:53:00,70.8,65.4,30.04,ESE,115,0.0,4.0,83,0.00,,---,0.00,VWS V14.01,2013-08-20 12:53:00,
2013-08-20 08:54:00,70.8,65.7,30.04,East,84,0.0,4.0,84,0.00,,---,0.00,VWS V14.01,2013-08-20 12:54:00,
2013-08-20 08:55:00,70.9,65.5,30.04,SE,136,3.0,4.0,83,0.00,,---,0.00,VWS V14.01,2013-08-20 12:55:00,
2013-08-20 08:56:00,70.9,65.5,30.04,SE,130,3.0,4.0,83,0.00,,---,0.00,VWS V14.01,2013-08-20 12:56:00,
2013-08-20 08:58:00,70.9,65.8,30.04,SSW,203,2.0,4.0,84,0.00,,---,0.00,VWS V14.01,2013-08-20 12:58:00,
2013-08-20 08:59:00,70.9,65.5,30.05,SSE,153,0.0,4.0,83,0.00,,---,0.00,VWS V14.01,2013-08-20 12:59:00,
2013-08-20 09:01:00,71.1,65.3,30.05,WSW,257,5.0,5.0,82,0.00,,---,0.00,VWS V14.01,2013-08-20 13:01:00,
2013-08-20 09:03:00,71.3,64.1,30.05,WSW,258,1.0,5.0,78,0.00,,---,0.00,VWS V14.01,2013-08-20 13:03:00,
2013-08-20 09:04:00,71.3,63.7,30.05,South,172,0.0,5.0,77,0.00,,---,0.00,VWS V14.01,2013-08-20 13:04:00,
2013-08-20 09:05:00,71.5,63.9,30.05,South,172,0.0,5.0,77,0.00,,---,0.00,VWS V14.01,2013-08-20 13:05:00,
2013-08-20 09:06:00,71.8,63.8,30.05,SW,222,0.0,5.0,76,0.00,,---,0.00,VWS V14.01,2013-08-20 13:06:00,
2013-08-20 09:08:00,72.0,63.7,30.05,WSW,257,0.0,5.0,75,0.00,,---,0.00,VWS V14.01,2013-08-20 13:08:00,
2013-08-20 09:10:00,72.3,63.9,30.05,WSW,257,4.0,5.0,75,0.00,,---,0.00,VWS V14.01,2013-08-20 13:10:00,
2013-08-20 09:11:00,72.3,63.6,30.05,SSW,194,1.0,5.0,74,0.00,,---,0.00,VWS V14.01,2013-08-20 13:11:00,
2013-08-20 09:12:00,72.3,63.6,30.05,SW,227,3.0,5.0,74,0.00,,---,0.00,VWS V14.01,2013-08-20 13:12:00,
2013-08-20 09:14:00,72.4,63.7,30.05,WSW,238,2.0,5.0,74,0.00,,---,0.00,VWS V14.01,2013-08-20 13:14:00,
2013-08-20 09:15:00,72.5,63.8,30.05,WSW,252,4.0,5.0,74,0.00,,---,0.00,VWS V14.01,2013-08-20 13:15:00,
2013-08-20 09:17:00,72.6,63.5,30.05,SW,225,1.0,5.0,73,0.00,,---,0.00,VWS V14.01,2013-08-20 13:17:00,
2013-08-20 09:18:00,72.8,63.7,30.05,SW,224,2.0,5.0,73,0.00,,---,0.00,VWS V14.01,2013-08-20 13:18:00,
2013-08-20 09:19:00,72.8,63.7,30.05,SE,132,1.0,5.0,73,0.00,,---,0.00,VWS V14.01,2013-08-20 13:19:00,
2013-08-20 09:20:00,73.0,63.5,30.05,SW,218,2.0,5.0,72,0.00,,---,0.00,VWS V14.01,2013-08-20 13:20:00,
2013-08-20 09:22:00,73.0,63.5,30.05,South,174,0.0,5.0,72,0.00,,---,0.00,VWS V14.01,2013-08-20 13:22:00,
2013-08-20 09:23:00,73.0,63.8,30.05,SW,232,2.0,5.0,73,0.00,,---,0.00,VWS V14.01,2013-08-20 13:23:00,
2013-08-20 09:24:00,73.0,63.5,30.05,WSW,238,3.0,5.0,72,0.00,,---,0.00,VWS V14.01,2013-08-20 13:24:00,
2013-08-20 09:26:00,72.8,63.3,30.05,WSW,238,2.0,5.0,72,0.00,,---,0.00,VWS V14.01,2013-08-20 13:26:00,
2013-08-20 09:28:00,72.6,62.7,30.05,WSW,252,2.0,2.0,71,0.00,,---,0.00,VWS V14.01,2013-08-20 13:28:00,
2013-08-20 09:29:00,72.7,63.2,30.05,WSW,250,1.0,2.0,72,0.00,,---,0.00,VWS V14.01,2013-08-20 13:29:00,
2013-08-20 09:32:00,72.7,63.2,30.05,SW,229,2.0,4.0,72,0.00,,---,0.00,VWS V14.01,2013-08-20 13:32:00,
2013-08-20 09:33:00,72.6,63.5,30.05,West,264,5.0,7.0,73,0.00,,---,0.00,VWS V14.01,2013-08-20 13:33:00,
2013-08-20 09:34:00,72.6,62.7,30.05,West,263,4.0,7.0,71,0.00,,---,0.00,VWS V14.01,2013-08-20 13:34:00,
2013-08-20 09:38:00,72.6,62.7,30.05,WSW,237,5.0,7.0,71,0.00,,---,0.00,VWS V14.01,2013-08-20 13:38:00,
2013-08-20 09:39:00,72.5,62.6,30.05,SW,232,5.0,7.0,71,0.00,,---,0.00,VWS V14.01,2013-08-20 13:39:00,
2013-08-20 09:40:00,72.5,62.6,30.05,SSW,207,4.0,7.0,71,0.00,,---,0.00,VWS V14.01,2013-08-20 13:40:00,
2013-08-20 09:41:00,72.6,63.1,30.05,SSW,198,2.0,7.0,72,0.00,,---,0.00,VWS V14.01,2013-08-20 13:41:00,
2013-08-20 09:44:00,72.7,63.2,30.05,SW,214,4.0,7.0,72,0.00,,---,0.00,VWS V14.01,2013-08-20 13:44:00,
2013-08-20 09:45:00,72.7,63.2,30.05,SW,221,2.0,7.0,72,0.00,,---,0.00,VWS V14.01,2013-08-20 13:45:00,
2013-08-20 09:47:00,72.7,63.2,30.05,WSW,242,3.0,7.0,72,0.00,,---,0.00,VWS V14.01,2013-08-20 13:47:00,
2013-08-20 09:49:00,72.9,63.0,30.05,WSW,257,1.0,7.0,71,0.00,,---,0.00,VWS V14.01,2013-08-20 13:49:00,
2013-08-20 09:50:00,72.9,63.0,30.05,SW,225,1.0,7.0,71,0.00,,---,0.00,VWS V14.01,2013-08-20 13:50:00,
2013-08-20 09:51:00,72.9,63.0,30.05,SW,226,4.0,7.0,71,0.00,,---,0.00,VWS V14.01,2013-08-20 13:51:00,
2013-08-20 09:52:00,73.1,63.5,30.05,WSW,237,1.0,7.0,72,0.00,,---,0.00,VWS V14.01,2013-08-20 13:52:00,
2013-08-20 09:55:00,73.3,63.3,30.05,WSW,240,2.0,7.0,71,0.00,,---,0.00,VWS V14.01,2013-08-20 13:55:00,
2013-08-20 09:57:00,73.1,63.2,30.05,West,278,1.0,7.0,71,0.00,,---,0.00,VWS V14.01,2013-08-20 13:57:00,
2013-08-20 10:00:00,72.9,63.0,30.05,West,260,3.0,6.0,71,0.00,,---,0.00,VWS V14.01,2013-08-20 14:00:00,
2013-08-20 10:01:00,72.9,63.3,30.05,West,261,3.0,6.0,72,0.00,,---,0.00,VWS V14.01,2013-08-20 14:01:00,
2013-08-20 10:02:00,72.8,63.3,30.05,WSW,249,1.0,6.0,72,0.00,,---,0.00,VWS V14.01,2013-08-20 14:02:00,
2013-08-20 10:03:00,72.8,63.7,30.05,SSW,195,0.0,6.0,73,0.00,,---,0.00,VWS V14.01,2013-08-20 14:03:00,
2013-08-20 10:05:00,73.2,64.0,30.05,SW,216,4.0,6.0,73,0.00,,---,0.00,VWS V14.01,2013-08-20 14:05:00,
2013-08-20 10:07:00,73.3,63.3,30.05,SW,228,6.0,7.0,71,0.00,,---,0.00,VWS V14.01,2013-08-20 14:07:00,
2013-08-20 10:08:00,73.2,63.2,30.05,West,274,3.0,7.0,71,0.00,,---,0.00,VWS V14.01,2013-08-20 14:08:00,
2013-08-20 10:09:00,73.2,63.6,30.05,WSW,242,4.0,7.0,72,0.00,,---,0.00,VWS V14.01,2013-08-20 14:09:00,
2013-08-20 10:11:00,73.2,63.6,30.05,SSW,204,4.0,7.0,72,0.00,,---,0.00,VWS V14.01,2013-08-20 14:11:00,
2013-08-20 10:12:00,73.3,63.7,30.05,WSW,246,6.0,7.0,72,0.00,,---,0.00,VWS V14.01,2013-08-20 14:12:00,
2013-08-20 10:13:00,73.3,63.7,30.05,SSE,168,2.0,7.0,72,0.00,,---,0.00,VWS V14.01,2013-08-20 14:13:00,
2013-08-20 10:14:00,73.3,63.7,30.05,NNE,33,1.0,7.0,72,0.00,,---,0.00,VWS V14.01,2013-08-20 14:14:00,
2013-08-20 10:16:00,73.5,63.5,30.05,WSW,246,3.0,7.0,71,0.00,,---,0.00,VWS V14.01,2013-08-20 14:16:00,
2013-08-20 10:19:00,73.4,63.8,30.05,SSW,212,3.0,7.0,72,0.00,,---,0.00,VWS V14.01,2013-08-20 14:19:00,
2013-08-20 10:20:00,73.7,64.1,30.05,WSW,240,5.0,7.0,72,0.00,,---,0.00,VWS V14.01,2013-08-20 14:20:00,
2013-08-20 10:23:00,73.8,63.8,30.05,West,271,1.0,7.0,71,0.00,,---,0.00,VWS V14.01,2013-08-20 14:23:00,
2013-08-20 10:24:00,73.8,63.8,30.05,West,270,1.0,7.0,71,0.00,,---,0.00,VWS V14.01,2013-08-20 14:24:00,
2013-08-20 10:25:00,73.9,63.9,30.05,SW,214,1.0,7.0,71,0.00,,---,0.00,VWS V14.01,2013-08-20 14:25:00,
2013-08-20 10:26:00,74.0,64.4,30.05,SW,221,1.0,7.0,72,0.00,,---,0.00,VWS V14.01,2013-08-20 14:26:00,
2013-08-20 10:29:00,74.5,64.1,30.05,SW,229,3.0,4.0,70,0.00,,---,0.00,VWS V14.01,2013-08-20 14:29:00,
2013-08-20 10:30:00,74.4,64.0,30.05,West,264,1.0,4.0,70,0.00,,---,0.00,VWS V14.01,2013-08-20 14:30:00,
2013-08-20 10:32:00,74.5,64.5,30.05,WNW,290,3.0,4.0,71,0.00,,---,0.00,VWS V14.01,2013-08-20 14:32:00,
2013-08-20 10:34:00,74.8,64.8,30.05,WSW,238,3.0,4.0,71,0.00,,---,0.00,VWS V14.01,2013-08-20 14:34:00,
2013-08-20 10:35:00,74.9,64.9,30.05,WSW,257,2.0,4.0,71,0.00,,---,0.00,VWS V14.01,2013-08-20 14:35:00,
2013-08-20 10:37:00,75.0,64.6,30.05,SW,228,1.0,4.0,70,0.00,,---,0.00,VWS V14.01,2013-08-20 14:37:00,
2013-08-20 10:38:00,75.3,65.3,30.05,ESE,104,2.0,4.0,71,0.00,,---,0.00,VWS V14.01,2013-08-20 14:38:00,
2013-08-20 10:40:00,75.5,65.0,30.05,WSW,250,2.0,6.0,70,0.00,,---,0.00,VWS V14.01,2013-08-20 14:40:00,
2013-08-20 10:41:00,75.4,64.9,30.05,SW,217,1.0,6.0,70,0.00,,---,0.00,VWS V14.01,2013-08-20 14:41:00,
2013-08-20 10:42:00,75.4,64.5,30.05,SW,232,3.0,6.0,69,0.00,,---,0.00,VWS V14.01,2013-08-20 14:42:00,
2013-08-20 10:44:00,75.4,64.1,30.05,SE,138,3.0,6.0,68,0.00,,---,0.00,VWS V14.01,2013-08-20 14:44:00,
2013-08-20 10:46:00,75.5,64.6,30.05,SSW,212,6.0,6.0,69,0.00,,---,0.00,VWS V14.01,2013-08-20 14:46:00,
2013-08-20 10:47:00,75.5,64.6,30.04,SW,215,4.0,6.0,69,0.00,,---,0.00,VWS V14.01,2013-08-20 14:47:00,
2013-08-20 10:50:00,75.6,64.7,30.05,SW,230,3.0,7.0,69,0.00,,---,0.00,VWS V14.01,2013-08-20 14:50:00,
2013-08-20 10:51:00,75.6,64.3,30.04,SSE,165,2.0,7.0,68,0.00,,---,0.00,VWS V14.01,2013-08-20 14:51:00,
2013-08-20 10:52:00,75.6,64.3,30.04,SW,215,4.0,7.0,68,0.00,,---,0.00,VWS V14.01,2013-08-20 14:52:00,
2013-08-20 10:53:00,75.7,64.4,30.04,SSW,200,3.0,7.0,68,0.00,,---,0.00,VWS V14.01,2013-08-20 14:53:00,
2013-08-20 10:55:00,75.8,64.1,30.04,West,272,6.0,7.0,67,0.00,,---,0.00,VWS V14.01,2013-08-20 14:55:00,
2013-08-20 10:56:00,75.7,64.0,30.04,SW,235,8.0,8.0,67,0.00,,---,0.00,VWS V14.01,2013-08-20 14:56:00,
2013-08-20 10:57:00,75.5,63.8,30.04,West,259,7.0,8.0,67,0.00,,---,0.00,VWS V14.01,2013-08-20 14:57:00,
2013-08-20 10:59:00,75.3,64.0,30.04,WSW,253,6.0,6.0,68,0.00,,---,0.00,VWS V14.01,2013-08-20 14:59:00,
2013-08-20 11:01:00,75.3,64.0,30.04,WSW,251,8.0,8.0,68,0.00,,---,0.00,VWS V14.01,2013-08-20 15:01:00,
2013-08-20 11:02:00,75.2,63.9,30.04,West,266,6.0,8.0,68,0.00,,---,0.00,VWS V14.01,2013-08-20 15:02:00,
2013-08-20 11:04:00,75.1,63.8,30.05,SW,232,3.0,8.0,68,0.00,,---,0.00,VWS V14.01,2013-08-20 15:04:00,
2013-08-20 11:06:00,75.1,64.2,30.05,West,267,3.0,8.0,69,0.00,,---,0.00,VWS V14.01,2013-08-20 15:06:00,
2013-08-20 11:07:00,75.2,64.3,30.05,WSW,250,2.0,8.0,69,0.00,,---,0.00,VWS V14.01,2013-08-20 15:07:00,
2013-08-20 11:08:00,75.3,64.4,30.05,SW,231,4.0,8.0,69,0.00,,---,0.00,VWS V14.01,2013-08-20 15:08:00,
2013-08-20 11:10:00,75.5,64.2,30.05,SSW,207,2.0,8.0,68,0.00,,---,0.00,VWS V14.01,2013-08-20 15:10:00,
2013-08-20 11:12:00,75.9,64.6,30.05,SW,214,3.0,8.0,68,0.00,,---,0.00,VWS V14.01,2013-08-20 15:12:00,
2013-08-20 11:13:00,75.9,64.2,30.05,NW,304,1.0,8.0,67,0.00,,---,0.00,VWS V14.01,2013-08-20 15:13:00,
2013-08-20 11:14:00,75.9,64.6,30.05,WSW,252,5.0,8.0,68,0.00,,---,0.00,VWS V14.01,2013-08-20 15:14:00,
2013-08-20 11:17:00,76.5,64.3,30.05,West,270,3.0,8.0,66,0.00,,---,0.00,VWS V14.01,2013-08-20 15:17:00,
2013-08-20 11:18:00,76.4,63.8,30.05,WSW,255,4.0,8.0,65,0.00,,---,0.00,VWS V14.01,2013-08-20 15:18:00,
2013-08-20 11:19:00,76.4,63.8,30.05,WSW,239,5.0,8.0,65,0.00,,---,0.00,VWS V14.01,2013-08-20 15:19:00,
2013-08-20 11:23:00,76.4,63.8,30.05,WNW,284,2.0,8.0,65,0.00,,---,0.00,VWS V14.01,2013-08-20 15:23:00,
2013-08-20 11:24:00,76.4,63.8,30.05,West,267,2.0,8.0,65,0.00,,---,0.00,VWS V14.01,2013-08-20 15:24:00,
2013-08-20 11:25:00,76.5,63.9,30.05,WSW,252,2.0,8.0,65,0.00,,---,0.00,VWS V14.01,2013-08-20 15:25:00,
2013-08-20 11:26:00,76.6,64.0,30.05,SW,226,4.0,8.0,65,0.00,,---,0.00,VWS V14.01,2013-08-20 15:26:00,
2013-08-20 11:29:00,76.9,63.8,30.05,NW,322,3.0,5.0,64,0.00,,---,0.00,VWS V14.01,2013-08-20 15:29:00,
2013-08-20 11:30:00,76.9,63.8,30.05,WNW,283,3.0,6.0,64,0.00,,---,0.00,VWS V14.01,2013-08-20 15:30:00,
2013-08-20 11:31:00,76.9,64.2,30.05,West,268,4.0,6.0,65,0.00,,---,0.00,VWS V14.01,2013-08-20 15:31:00,
2013-08-20 11:34:00,77.1,64.0,30.05,NW,314,2.0,6.0,64,0.00,,---,0.00,VWS V14.01,2013-08-20 15:34:00,
2013-08-20 11:35:00,77.3,64.2,30.05,NNW,329,3.0,6.0,64,0.00,,---,0.00,VWS V14.01,2013-08-20 15:35:00,
2013-08-20 11:36:00,77.3,63.7,30.05,West,280,3.0,6.0,63,0.00,,---,0.00,VWS V14.01,2013-08-20 15:36:00,
2013-08-20 11:37:00,77.5,63.9,30.05,NW,319,3.0,6.0,63,0.00,,---,0.00,VWS V14.01,2013-08-20 15:37:00,
2013-08-20 11:39:00,77.6,63.6,30.05,West,274,4.0,6.0,62,0.00,,---,0.00,VWS V14.01,2013-08-20 15:39:00,
2013-08-20 11:40:00,77.6,63.1,30.05,SW,214,0.0,6.0,61,0.00,,---,0.00,VWS V14.01,2013-08-20 15:40:00,
2013-08-20 11:41:00,77.6,63.6,30.05,SW,217,2.0,6.0,62,0.00,,---,0.00,VWS V14.01,2013-08-20 15:41:00,
2013-08-20 11:42:00,77.7,63.7,30.05,WNW,283,4.0,6.0,62,0.00,,---,0.00,VWS V14.01,2013-08-20 15:42:00,
2013-08-20 11:43:00,77.7,63.7,30.05,SE,143,1.0,6.0,62,0.00,,---,0.00,VWS V14.01,2013-08-20 15:43:00,
2013-08-20 11:45:00,78.0,63.9,30.05,West,264,4.0,6.0,62,0.00,,---,0.00,VWS V14.01,2013-08-20 15:45:00,
2013-08-20 11:46:00,78.0,63.5,30.05,WSW,245,5.0,6.0,61,0.00,,---,0.00,VWS V14.01,2013-08-20 15:46:00,
2013-08-20 11:48:00,77.9,62.9,30.04,WNW,284,4.0,8.0,60,0.00,,---,0.00,VWS V14.01,2013-08-20 15:48:00,
2013-08-20 11:50:00,77.8,63.3,30.04,West,263,5.0,8.0,61,0.00,,---,0.00,VWS V14.01,2013-08-20 15:50:00,
2013-08-20 11:51:00,77.7,62.7,30.04,West,276,1.0,8.0,60,0.00,,---,0.00,VWS V14.01,2013-08-20 15:51:00,
2013-08-20 11:54:00,77.7,62.7,30.04,SW,214,4.0,8.0,60,0.00,,---,0.00,VWS V14.01,2013-08-20 15:54:00,
2013-08-20 11:55:00,77.8,62.8,30.04,SE,135,1.0,8.0,60,0.00,,---,0.00,VWS V14.01,2013-08-20 15:55:00,
2013-08-20 11:56:00,78.3,63.8,30.04,WSW,256,1.0,8.0,61,0.00,,---,0.00,VWS V14.01,2013-08-20 15:56:00,
2013-08-20 11:57:00,78.8,64.2,30.04,WSW,244,0.0,8.0,61,0.00,,---,0.00,VWS V14.01,2013-08-20 15:57:00,
2013-08-20 12:00:00,79.2,63.2,30.04,West,274,5.0,5.0,58,0.00,,---,0.00,VWS V14.01,2013-08-20 16:00:00,
2013-08-20 12:01:00,79.2,63.2,30.04,West,274,3.0,5.0,58,0.00,,---,0.00,VWS V14.01,2013-08-20 16:01:00,
2013-08-20 12:02:00,79.0,63.5,30.04,SW,224,4.0,5.0,59,0.00,,---,0.00,VWS V14.01,2013-08-20 16:02:00,
2013-08-20 12:03:00,78.9,62.9,30.04,West,274,4.0,8.0,58,0.00,,---,0.00,VWS V14.01,2013-08-20 16:03:00,
2013-08-20 12:05:00,78.9,63.4,30.04,WNW,293,3.0,8.0,59,0.00,,---,0.00,VWS V14.01,2013-08-20 16:05:00,
2013-08-20 12:06:00,79.0,63.5,30.04,SSW,200,1.0,8.0,59,0.00,,---,0.00,VWS V14.01,2013-08-20 16:06:00,
2013-08-20 12:08:00,79.1,63.6,30.04,NE,34,0.0,8.0,59,0.00,,---,0.00,VWS V14.01,2013-08-20 16:08:00,
2013-08-20 12:09:00,79.3,63.7,30.04,East,91,1.0,8.0,59,0.00,,---,0.00,VWS V14.01,2013-08-20 16:09:00,
2013-08-20 12:10:00,79.8,64.7,30.03,West,273,3.0,8.0,60,0.00,,---,0.00,VWS V14.01,2013-08-20 16:10:00,
2013-08-20 12:12:00,79.9,63.3,30.03,WNW,302,1.0,8.0,57,0.00,,---,0.00,VWS V14.01,2013-08-20 16:12:00,
2013-08-20 12:13:00,80.1,64.0,30.03,SW,226,2.0,8.0,58,0.00,,---,0.00,VWS V14.01,2013-08-20 16:13:00,
2013-08-20 12:14:00,80.1,64.0,30.03,WSW,238,5.0,8.0,58,0.00,,---,0.00,VWS V14.01,2013-08-20 16:14:00,
2013-08-20 12:15:00,80.2,63.6,30.03,SW,228,5.0,8.0,57,0.00,,---,0.00,VWS V14.01,2013-08-20 16:15:00,
2013-08-20 12:18:00,80.0,63.4,30.03,SW,232,1.0,8.0,57,0.00,,---,0.00,VWS V14.01,2013-08-20 16:18:00,
2013-08-20 12:19:00,80.1,63.5,30.03,WSW,252,6.0,8.0,57,0.00,,---,0.00,VWS V14.01,2013-08-20 16:19:00,
2013-08-20 12:21:00,79.8,62.7,30.03,SSE,153,2.0,8.0,56,0.00,,---,0.00,VWS V14.01,2013-08-20 16:21:00,
2013-08-20 12:23:00,79.9,63.3,30.03,SW,223,1.0,8.0,57,0.00,,---,0.00,VWS V14.01,2013-08-20 16:23:00,
2013-08-20 12:25:00,80.0,63.4,30.03,SW,231,2.0,8.0,57,0.00,,---,0.00,VWS V14.01,2013-08-20 16:25:00,
2013-08-20 12:26:00,80.1,63.5,30.03,WSW,252,3.0,8.0,57,0.00,,---,0.00,VWS V14.01,2013-08-20 16:26:00,
2013-08-20 12:30:00,79.9,63.3,30.03,WSW,252,6.0,9.0,57,0.00,,---,0.00,VWS V14.01,2013-08-20 16:30:00,
2013-08-20 12:31:00,79.9,62.8,30.03,SSW,197,2.0,9.0,56,0.00,,---,0.00,VWS V14.01,2013-08-20 16:31:00,
2013-08-20 12:32:00,79.9,63.3,30.03,SW,217,3.0,9.0,57,0.00,,---,0.00,VWS V14.01,2013-08-20 16:32:00,
2013-08-20 12:34:00,79.8,63.2,30.03,West,265,3.0,9.0,57,0.00,,---,0.00,VWS V14.01,2013-08-20 16:34:00,
2013-08-20 12:36:00,79.8,62.7,30.03,SSW,194,3.0,9.0,56,0.00,,---,0.00,VWS V14.01,2013-08-20 16:36:00,
2013-08-20 12:37:00,79.9,63.3,30.03,WSW,239,7.0,9.0,57,0.00,,---,0.00,VWS V14.01,2013-08-20 16:37:00,
2013-08-20 12:38:00,79.9,62.3,30.03,West,267,3.0,9.0,55,0.00,,---,0.00,VWS V14.01,2013-08-20 16:38:00,
2013-08-20 12:40:00,79.8,63.2,30.03,West,269,2.0,9.0,57,0.00,,---,0.00,VWS V14.01,2013-08-20 16:40:00,
2013-08-20 12:41:00,80.0,63.9,30.03,West,277,2.0,9.0,58,0.00,,---,0.00,VWS V14.01,2013-08-20 16:41:00,
2013-08-20 12:42:00,80.0,63.9,30.03,North,1,0.0,9.0,58,0.00,,---,0.00,VWS V14.01,2013-08-20 16:42:00,
2013-08-20 12:43:00,80.2,63.6,30.03,West,276,4.0,9.0,57,0.00,,---,0.00,VWS V14.01,2013-08-20 16:43:00,
2013-08-20 12:46:00,80.2,63.6,30.03,WSW,245,4.0,9.0,57,0.00,,---,0.00,VWS V14.01,2013-08-20 16:46:00,
2013-08-20 12:47:00,80.2,63.6,30.03,West,264,2.0,9.0,57,0.00,,---,0.00,VWS V14.01,2013-08-20 16:47:00,
2013-08-20 12:48:00,80.2,63.6,30.03,West,280,1.0,9.0,57,0.00,,---,0.00,VWS V14.01,2013-08-20 16:48:00,
2013-08-20 12:50:00,80.3,63.7,30.03,WSW,252,4.0,9.0,57,0.00,,---,0.00,VWS V14.01,2013-08-20 16:50:00,
2013-08-20 12:52:00,80.2,63.6,30.03,WSW,255,4.0,9.0,57,0.00,,---,0.00,VWS V14.01,2013-08-20 16:52:00,
2013-08-20 12:54:00,80.0,62.4,30.03,WNW,290,3.0,9.0,55,0.00,,---,0.00,VWS V14.01,2013-08-20 16:54:00,
2013-08-20 12:55:00,80.0,62.4,30.03,NW,304,2.0,9.0,55,0.00,,---,0.00,VWS V14.01,2013-08-20 16:55:00,
2013-08-20 12:57:00,80.0,62.4,30.03,West,270,2.0,9.0,55,0.00,,---,0.00,VWS V14.01,2013-08-20 16:57:00,
2013-08-20 12:58:00,79.9,62.8,30.03,WNW,284,3.0,9.0,56,0.00,,---,0.00,VWS V14.01,2013-08-20 16:58:00,
2013-08-20 13:00:00,80.0,63.4,30.03,SW,226,3.0,6.0,57,0.00,,---,0.00,VWS V14.01,2013-08-20 17:00:00,
2013-08-20 13:01:00,80.1,64.0,30.03,SW,214,1.0,6.0,58,0.00,,---,0.00,VWS V14.01,2013-08-20 17:01:00,
2013-08-20 13:02:00,80.2,64.1,30.03,SE,126,0.0,6.0,58,0.00,,---,0.00,VWS V14.01,2013-08-20 17:02:00,
2013-08-20 13:04:00,80.7,64.1,30.03,SW,221,0.0,6.0,57,0.00,,---,0.00,VWS V14.01,2013-08-20 17:04:00,
2013-08-20 13:05:00,81.2,64.0,30.03,NW,320,0.0,6.0,56,0.00,,---,0.00,VWS V14.01,2013-08-20 17:05:00,
2013-08-20 13:07:00,81.7,64.5,30.03,WSW,255,1.0,6.0,56,0.00,,---,0.00,VWS V14.01,2013-08-20 17:07:00,
2013-08-20 13:08:00,81.9,64.2,30.03,West,261,2.0,6.0,55,0.00,,---,0.00,VWS V14.01,2013-08-20 17:08:00,
2013-08-20 13:10:00,81.9,63.1,30.03,SW,228,2.0,6.0,53,0.00,,---,0.00,VWS V14.01,2013-08-20 17:10:00,
2013-08-20 13:11:00,81.7,64.0,30.03,SE,129,1.0,6.0,55,0.00,,---,0.00,VWS V14.01,2013-08-20 17:11:00,
2013-08-20 13:13:00,81.8,63.5,30.03,SW,217,0.0,6.0,54,0.00,,---,0.00,VWS V14.01,2013-08-20 17:13:00,
2013-08-20 13:14:00,82.1,63.8,30.03,WNW,286,1.0,6.0,54,0.00,,---,0.00,VWS V14.01,2013-08-20 17:14:00,
2013-08-20 13:16:00,81.9,63.6,30.03,NNW,333,3.0,8.0,54,0.00,,---,0.00,VWS V14.01,2013-08-20 17:16:00,
2013-08-20 13:18:00,81.7,63.5,30.03,South,189,1.0,8.0,54,0.00,,---,0.00,VWS V14.01,2013-08-20 17:18:00,
2013-08-20 13:19:00,81.7,63.5,30.03,SE,146,1.0,8.0,54,0.00,,---,0.00,VWS V14.01,2013-08-20 17:19:00,
2013-08-20 13:20:00,81.7,64.5,30.03,WSW,250,5.0,8.0,56,0.00,,---,0.00,VWS V14.01,2013-08-20 17:20:00,
2013-08-20 13:23:00,81.6,63.4,30.03,SW,235,2.0,10.0,54,0.00,,---,0.00,VWS V14.01,2013-08-20 17:23:00,
2013-08-20 13:24:00,81.6,63.9,30.03,SW,232,4.0,10.0,55,0.00,,---,0.00,VWS V14.01,2013-08-20 17:24:00,
2013-08-20 13:25:00,81.6,63.9,30.03,WSW,246,5.0,10.0,55,0.00,,---,0.00,VWS V14.01,2013-08-20 17:25:00,
2013-08-20 13:28:00,81.1,63.4,30.03,West,276,4.0,10.0,55,0.00,,---,0.00,VWS V14.01,2013-08-20 17:28:00,
2013-08-20 13:29:00,81.0,63.8,30.03,WSW,242,6.0,7.0,56,0.00,,---,0.00,VWS V14.01,2013-08-20 17:29:00,
2013-08-20 13:31:00,81.0,64.3,30.03,WSW,257,3.0,7.0,57,0.00,,---,0.00,VWS V14.01,2013-08-20 17:31:00,
2013-08-20 13:33:00,81.3,64.1,30.03,South,190,1.0,7.0,56,0.00,,---,0.00,VWS V14.01,2013-08-20 17:33:00,
2013-08-20 13:34:00,81.5,64.8,30.03,WSW,248,2.0,7.0,57,0.00,,---,0.00,VWS V14.01,2013-08-20 17:34:00,
2013-08-20 13:36:00,81.6,64.9,30.03,WSW,247,6.0,7.0,57,0.00,,---,0.00,VWS V14.01,2013-08-20 17:36:00,
2013-08-20 13:39:00,81.3,64.1,30.03,WSW,246,7.0,9.0,56,0.00,,---,0.00,VWS V14.01,2013-08-20 17:39:00,
2013-08-20 13:41:00,81.2,64.0,30.03,West,281,4.0,9.0,56,0.00,,---,0.00,VWS V14.01,2013-08-20 17:41:00,
2013-08-20 13:42:00,81.2,64.0,30.03,SW,236,4.0,9.0,56,0.00,,---,0.00,VWS V14.01,2013-08-20 17:42:00,
2013-08-20 13:44:00,81.3,63.6,30.03,West,270,3.0,9.0,55,0.00,,---,0.00,VWS V14.01,2013-08-20 17:44:00,
2013-08-20 13:45:00,81.5,65.3,30.02,SE,143,0.0,9.0,58,0.00,,---,0.00,VWS V14.01,2013-08-20 17:45:00,
2013-08-20 13:46:00,81.7,65.0,30.02,ESE,111,0.0,9.0,57,0.00,,---,0.00,VWS V14.01,2013-08-20 17:46:00,
2013-08-20 13:47:00,81.9,65.2,30.02,SW,221,6.0,9.0,57,0.00,,---,0.00,VWS V14.01,2013-08-20 17:47:00,
2013-08-20 13:49:00,81.8,65.1,30.03,SW,225,4.0,9.0,57,0.00,,---,0.00,VWS V14.01,2013-08-20 17:49:00,
2013-08-20 13:51:00,82.0,66.8,30.02,WSW,250,2.0,9.0,60,0.00,,---,0.00,VWS V14.01,2013-08-20 17:51:00,
2013-08-20 13:52:00,82.1,65.4,30.03,ENE,64,1.0,9.0,57,0.00,,---,0.00,VWS V14.01,2013-08-20 17:52:00,
2013-08-20 13:53:00,82.1,65.4,30.03,ENE,63,1.0,9.0,57,0.00,,---,0.00,VWS V14.01,2013-08-20 17:53:00,
2013-08-20 13:55:00,82.7,64.9,30.02,SW,215,1.0,9.0,55,0.00,,---,0.00,VWS V14.01,2013-08-20 17:55:00,
2013-08-20 13:56:00,83.0,65.2,30.02,SW,222,0.0,9.0,55,0.00,,---,0.00,VWS V14.01,2013-08-20 17:56:00,
2013-08-20 13:57:00,83.3,66.0,30.02,SSW,203,2.0,9.0,56,0.00,,---,0.00,VWS V14.01,2013-08-20 17:57:00,
2013-08-20 13:58:00,83.4,64.5,30.02,SW,229,3.0,3.0,53,0.00,,---,0.00,VWS V14.01,2013-08-20 17:58:00,
2013-08-20 14:01:00,82.6,63.2,30.02,West,272,4.0,10.0,52,0.00,,---,0.00,VWS V14.01,2013-08-20 18:01:00,
2013-08-20 14:02:00,82.4,63.6,30.02,SW,231,1.0,10.0,53,0.00,,---,0.00,VWS V14.01,2013-08-20 18:02:00,
2013-08-20 14:03:00,82.4,63.6,30.02,WSW,249,2.0,10.0,53,0.00,,---,0.00,VWS V14.01,2013-08-20 18:03:00,
2013-08-20 14:04:00,82.3,64.0,30.02,West,277,2.0,10.0,54,0.00,,---,0.00,VWS V14.01,2013-08-20 18:04:00,
2013-08-20 14:06:00,82.7,64.4,30.02,SW,231,4.0,10.0,54,0.00,,---,0.00,VWS V14.01,2013-08-20 18:06:00,
2013-08-20 14:08:00,83.0,65.2,30.02,WSW,257,1.0,10.0,55,0.00,,---,0.00,VWS V14.01,2013-08-20 18:08:00,
2013-08-20 14:09:00,83.0,63.6,30.02,West,271,3.0,10.0,52,0.00,,---,0.00,VWS V14.01,2013-08-20 18:09:00,
2013-08-20 14:10:00,83.1,64.2,30.02,WSW,245,0.0,10.0,53,0.00,,---,0.00,VWS V14.01,2013-08-20 18:10:00,
2013-08-20 14:12:00,82.9,62.4,30.02,WNW,286,2.0,10.0,50,0.00,,---,0.00,VWS V14.01,2013-08-20 18:12:00,
2013-08-20 14:13:00,82.7,63.3,30.02,SW,233,1.0,10.0,52,0.00,,---,0.00,VWS V14.01,2013-08-20 18:13:00,
2013-08-20 14:14:00,82.7,63.3,30.02,West,276,5.0,10.0,52,0.00,,---,0.00,VWS V14.01,2013-08-20 18:14:00,
2013-08-20 14:15:00,82.5,62.6,30.02,WSW,257,5.0,10.0,51,0.00,,---,0.00,VWS V14.01,2013-08-20 18:15:00,
2013-08-20 14:16:00,82.2,62.8,30.02,NNW,332,4.0,10.0,52,0.00,,---,0.00,VWS V14.01,2013-08-20 18:16:00,
2013-08-20 14:17:00,82.2,62.3,30.02,WSW,246,1.0,10.0,51,0.00,,---,0.00,VWS V14.01,2013-08-20 18:17:00,
2013-08-20 14:18:00,82.2,62.8,30.02,SW,231,5.0,10.0,52,0.00,,---,0.00,VWS V14.01,2013-08-20 18:18:00,
2013-08-20 14:19:00,82.2,62.3,30.02,SW,219,4.0,10.0,51,0.00,,---,0.00,VWS V14.01,2013-08-20 18:19:00,
2013-08-20 14:21:00,82.4,63.6,30.02,WNW,287,3.0,10.0,53,0.00,,---,0.00,VWS V14.01,2013-08-20 18:21:00,
2013-08-20 14:22:00,82.5,63.1,30.02,WSW,255,6.0,10.0,52,0.00,,---,0.00,VWS V14.01,2013-08-20 18:22:00,
2013-08-20 14:24:00,82.4,63.6,30.02,SSE,156,2.0,10.0,53,0.00,,---,0.00,VWS V14.01,2013-08-20 18:24:00,
2013-08-20 14:25:00,82.5,63.1,30.02,ENE,77,3.0,10.0,52,0.00,,---,0.00,VWS V14.01,2013-08-20 18:25:00,
2013-08-20 14:27:00,82.6,62.7,30.02,SW,232,1.0,10.0,51,0.00,,---,0.00,VWS V14.01,2013-08-20 18:27:00,
2013-08-20 14:28:00,82.6,63.8,30.02,West,266,1.0,10.0,53,0.00,,---,0.00,VWS V14.01,2013-08-20 18:28:00,
2013-08-20 14:30:00,82.9,64.0,30.02,West,267,1.0,4.0,53,0.00,,---,0.00,VWS V14.01,2013-08-20 18:30:00,
2013-08-20 14:31:00,83.0,64.1,30.02,WNW,286,6.0,6.0,53,0.00,,---,0.00,VWS V14.01,2013-08-20 18:31:00,
2013-08-20 14:32:00,83.0,64.1,30.02,WNW,299,5.0,6.0,53,0.00,,---,0.00,VWS V14.01,2013-08-20 18:32:00,
2013-08-20 14:33:00,83.0,62.5,30.02,South,175,4.0,8.0,50,0.00,,---,0.00,VWS V14.01,2013-08-20 18:33:00,
2013-08-20 14:34:00,83.0,62.5,30.02,WSW,253,3.0,8.0,50,0.00,,---,0.00,VWS V14.01,2013-08-20 18:34:00,
2013-08-20 14:35:00,82.9,62.9,30.02,West,279,0.0,8.0,51,0.00,,---,0.00,VWS V14.01,2013-08-20 18:35:00,
2013-08-20 14:37:00,82.8,62.3,30.02,West,261,9.0,11.0,50,0.00,,---,0.00,VWS V14.01,2013-08-20 18:37:00,
2013-08-20 14:38:00,82.5,62.6,30.02,NW,314,2.0,11.0,51,0.00,,---,0.00,VWS V14.01,2013-08-20 18:38:00,
2013-08-20 14:40:00,82.4,62.5,30.02,WNW,295,7.0,11.0,51,0.00,,---,0.00,VWS V14.01,2013-08-20 18:40:00,
2013-08-20 14:42:00,82.5,62.6,30.02,WNW,300,3.0,11.0,51,0.00,,---,0.00,VWS V14.01,2013-08-20 18:42:00,
2013-08-20 14:44:00,82.4,62.5,30.02,SW,231,3.0,11.0,51,0.00,,---,0.00,VWS V14.01,2013-08-20 18:44:00,
2013-08-20 14:45:00,82.5,63.1,30.02,WNW,291,4.0,11.0,52,0.00,,---,0.00,VWS V14.01,2013-08-20 18:45:00,
2013-08-20 14:46:00,82.6,62.7,30.02,SSW,210,1.0,11.0,51,0.00,,---,0.00,VWS V14.01,2013-08-20 18:46:00,
2013-08-20 14:47:00,82.8,62.8,30.02,WNW,283,6.0,11.0,51,0.00,,---,0.00,VWS V14.01,2013-08-20 18:47:00,
2013-08-20 14:48:00,82.8,62.3,30.02,WNW,302,3.0,11.0,50,0.00,,---,0.00,VWS V14.01,2013-08-20 18:48:00,
2013-08-20 14:49:00,82.8,61.7,30.02,WNW,297,6.0,11.0,49,0.00,,---,0.00,VWS V14.01,2013-08-20 18:49:00,
2013-08-20 14:51:00,82.7,62.2,30.02,West,270,6.0,11.0,50,0.00,,---,0.00,VWS V14.01,2013-08-20 18:51:00,
2013-08-20 14:52:00,82.5,60.8,30.02,West,273,5.0,11.0,48,0.00,,---,0.00,VWS V14.01,2013-08-20 18:52:00,
2013-08-20 14:53:00,82.5,60.8,30.02,WNW,291,2.0,11.0,48,0.00,,---,0.00,VWS V14.01,2013-08-20 18:53:00,
2013-08-20 14:54:00,82.5,61.4,30.02,WSW,252,2.0,11.0,49,0.00,,---,0.00,VWS V14.01,2013-08-20 18:54:00,
2013-08-20 14:56:00,82.4,61.3,30.02,WSW,247,3.0,11.0,49,0.00,,---,0.00,VWS V14.01,2013-08-20 18:56:00,
2013-08-20 14:58:00,82.4,61.3,30.02,WNW,294,3.0,11.0,49,0.00,,---,0.00,VWS V14.01,2013-08-20 18:58:00,
2013-08-20 14:59:00,82.4,61.3,30.02,NNW,330,3.0,4.0,49,0.00,,---,0.00,VWS V14.01,2013-08-20 18:59:00,
2013-08-20 15:02:00,82.4,60.2,30.02,WNW,293,7.0,10.0,47,0.00,,---,0.00,VWS V14.01,2013-08-20 19:02:00,
2013-08-20 15:04:00,82.3,61.2,30.02,West,269,5.0,10.0,49,0.00,,---,0.00,VWS V14.01,2013-08-20 19:04:00,
2013-08-20 15:05:00,82.2,62.3,30.02,West,273,9.0,11.0,51,0.00,,---,0.00,VWS V14.01,2013-08-20 19:05:00,
2013-08-20 15:09:00,82.1,61.6,30.02,NW,317,3.0,11.0,50,0.00,,---,0.00,VWS V14.01,2013-08-20 19:09:00,
2013-08-20 15:10:00,82.1,61.6,30.02,WNW,290,7.0,11.0,50,0.00,,---,0.00,VWS V14.01,2013-08-20 19:10:00,
2013-08-20 15:11:00,82.2,62.3,30.02,West,259,2.0,11.0,51,0.00,,---,0.00,VWS V14.01,2013-08-20 19:11:00,
2013-08-20 15:14:00,82.2,62.3,30.02,WSW,252,5.0,11.0,51,0.00,,---,0.00,VWS V14.01,2013-08-20 19:14:00,
2013-08-20 15:15:00,82.2,62.3,30.02,SW,221,3.0,11.0,51,0.00,,---,0.00,VWS V14.01,2013-08-20 19:15:00,
2013-08-20 15:16:00,82.2,61.7,30.02,West,264,6.0,11.0,50,0.00,,---,0.00,VWS V14.01,2013-08-20 19:16:00,
2013-08-20 15:17:00,82.2,62.3,30.02,West,263,5.0,11.0,51,0.00,,---,0.00,VWS V14.01,2013-08-20 19:17:00,
2013-08-20 15:20:00,82.4,62.5,30.02,SW,235,3.0,11.0,51,0.00,,---,0.00,VWS V14.01,2013-08-20 19:20:00,
2013-08-20 15:21:00,82.4,62.5,30.02,SW,221,3.0,11.0,51,0.00,,---,0.00,VWS V14.01,2013-08-20 19:21:00,
2013-08-20 15:23:00,82.5,62.6,30.02,WNW,284,4.0,11.0,51,0.00,,---,0.00,VWS V14.01,2013-08-20 19:23:00,
2013-08-20 15:25:00,82.5,62.6,30.02,WSW,242,2.0,11.0,51,0.00,,---,0.00,VWS V14.01,2013-08-20 19:25:00,
2013-08-20 15:26:00,82.5,62.6,30.02,WSW,243,4.0,11.0,51,0.00,,---,0.00,VWS V14.01,2013-08-20 19:26:00,
2013-08-20 15:27:00,82.6,62.1,30.02,WSW,250,4.0,11.0,50,0.00,,---,0.00,VWS V14.01,2013-08-20 19:27:00,
2013-08-20 15:28:00,82.6,62.1,30.02,WSW,248,3.0,11.0,50,0.00,,---,0.00,VWS V14.01,2013-08-20 19:28:00,
2013-08-20 15:31:00,82.6,62.1,30.02,SW,217,5.0,6.0,50,0.00,,---,0.00,VWS V14.01,2013-08-20 19:31:00,
2013-08-20 15:33:00,82.5,62.0,30.02,WNW,284,5.0,8.0,50,0.00,,---,0.00,VWS V14.01,2013-08-20 19:33:00,
2013-08-20 15:36:00,82.4,61.3,30.02,WSW,246,4.0,9.0,49,0.00,,---,0.00,VWS V14.01,2013-08-20 19:36:00,
2013-08-20 15:37:00,82.4,61.9,30.02,SW,219,4.0,9.0,50,0.00,,---,0.00,VWS V14.01,2013-08-20 19:37:00,
2013-08-20 15:38:00,82.4,62.5,30.01,WSW,250,4.0,9.0,51,0.00,,---,0.00,VWS V14.01,2013-08-20 19:38:00,
2013-08-20 15:39:00,82.4,62.5,30.01,WSW,250,1.0,9.0,51,0.00,,---,0.00,VWS V14.01,2013-08-20 19:39:00,
2013-08-20 15:40:00,82.5,63.1,30.01,WSW,255,8.0,9.0,52,0.00,,---,0.00,VWS V14.01,2013-08-20 19:40:00,
2013-08-20 15:42:00,82.4,62.5,30.01,WSW,250,5.0,9.0,51,0.00,,---,0.00,VWS V14.01,2013-08-20 19:42:00,
2013-08-20 15:44:00,82.4,62.5,30.02,West,260,3.0,9.0,51,0.00,,---,0.00,VWS V14.01,2013-08-20 19:44:00,
2013-08-20 15:45:00,82.4,62.5,30.01,SW,224,1.0,9.0,51,0.00,,---,0.00,VWS V14.01,2013-08-20 19:45:00,
2013-08-20 15:46:00,82.4,61.9,30.01,WSW,246,4.0,9.0,50,0.00,,---,0.00,VWS V14.01,2013-08-20 19:46:00,
2013-08-20 15:47:00,82.5,62.0,30.01,SW,217,4.0,9.0,50,0.00,,---,0.00,VWS V14.01,2013-08-20 19:47:00,
2013-08-20 15:49:00,82.5,62.0,30.01,West,279,4.0,9.0,50,0.00,,---,0.00,VWS V14.01,2013-08-20 19:49:00,
2013-08-20 15:50:00,82.6,62.7,30.01,SW,234,3.0,9.0,51,0.00,,---,0.00,VWS V14.01,2013-08-20 19:50:00,
2013-08-20 15:52:00,82.6,62.7,30.01,West,267,3.0,9.0,51,0.00,,---,0.00,VWS V14.01,2013-08-20 19:52:00,
2013-08-20 15:53:00,82.6,62.7,30.01,WSW,250,6.0,9.0,51,0.00,,---,0.00,VWS V14.01,2013-08-20 19:53:00,
2013-08-20 15:55:00,82.7,62.2,30.01,WSW,250,5.0,9.0,50,0.00,,---,0.00,VWS V14.01,2013-08-20 19:55:00,
2013-08-20 15:57:00,82.7,61.6,30.01,SSW,200,2.0,9.0,49,0.00,,---,0.00,VWS V14.01,2013-08-20 19:57:00,
2013-08-20 15:58:00,82.7,62.2,30.01,SW,222,1.0,9.0,50,0.00,,---,0.00,VWS V14.01,2013-08-20 19:58:00,
2013-08-20 16:02:00,82.9,62.4,30.01,WNW,302,4.0,7.0,50,0.00,,---,0.00,VWS V14.01,2013-08-20 20:02:00,
2013-08-20 16:03:00,82.9,62.4,30.01,SW,232,4.0,7.0,50,0.00,,---,0.00,VWS V14.01,2013-08-20 20:03:00,
2013-08-20 16:04:00,82.8,62.3,30.01,SSW,212,4.0,7.0,50,0.00,,---,0.00,VWS V14.01,2013-08-20 20:04:00,
2013-08-20 16:07:00,82.8,62.8,30.01,West,263,6.0,7.0,51,0.00,,---,0.00,VWS V14.01,2013-08-20 20:07:00,
2013-08-20 16:08:00,82.8,62.3,30.01,West,266,3.0,7.0,50,0.00,,---,0.00,VWS V14.01,2013-08-20 20:08:00,
2013-08-20 16:09:00,82.9,62.9,30.01,SW,221,1.0,7.0,51,0.00,,---,0.00,VWS V14.01,2013-08-20 20:09:00,
2013-08-20 16:12:00,83.2,62.7,30.01,West,273,6.0,7.0,50,0.00,,---,0.00,VWS V14.01,2013-08-20 20:12:00,
2013-08-20 16:14:00,83.1,62.5,30.01,SW,215,2.0,7.0,50,0.00,,---,0.00,VWS V14.01,2013-08-20 20:14:00,
2013-08-20 16:15:00,83.1,63.1,30.01,West,262,3.0,7.0,51,0.00,,---,0.00,VWS V14.01,2013-08-20 20:15:00,
2013-08-20 16:18:00,82.8,62.8,30.01,WSW,240,4.0,7.0,51,0.00,,---,0.00,VWS V14.01,2013-08-20 20:18:00,
2013-08-20 16:20:00,82.8,62.8,30.01,WNW,297,2.0,9.0,51,0.00,,---,0.00,VWS V14.01,2013-08-20 20:20:00,
2013-08-20 16:21:00,82.8,63.4,30.01,SW,235,3.0,9.0,52,0.00,,---,0.00,VWS V14.01,2013-08-20 20:21:00,
2013-08-20 16:23:00,82.8,63.4,30.01,SW,236,1.0,9.0,52,0.00,,---,0.00,VWS V14.01,2013-08-20 20:23:00,
2013-08-20 16:25:00,82.8,63.9,30.01,SW,236,3.0,9.0,53,0.00,,---,0.00,VWS V14.01,2013-08-20 20:25:00,
2013-08-20 16:27:00,82.9,63.5,30.01,SW,228,2.0,9.0,52,0.00,,---,0.00,VWS V14.01,2013-08-20 20:27:00,
2013-08-20 16:28:00,83.0,63.6,30.01,WSW,256,3.0,9.0,52,0.00,,---,0.00,VWS V14.01,2013-08-20 20:28:00,
2013-08-20 16:29:00,83.0,63.0,30.01,WSW,238,4.0,4.0,51,0.00,,---,0.00,VWS V14.01,2013-08-20 20:29:00,
2013-08-20 16:30:00,83.0,63.0,30.01,West,260,4.0,5.0,51,0.00,,---,0.00,VWS V14.01,2013-08-20 20:30:00,
2013-08-20 16:31:00,83.0,63.6,30.01,West,281,4.0,6.0,52,0.00,,---,0.00,VWS V14.01,2013-08-20 20:31:00,
2013-08-20 16:32:00,83.0,63.0,30.01,West,274,2.0,6.0,51,0.00,,---,0.00,VWS V14.01,2013-08-20 20:32:00,
2013-08-20 16:33:00,82.9,62.9,30.01,West,262,3.0,6.0,51,0.00,,---,0.00,VWS V14.01,2013-08-20 20:33:00,
2013-08-20 16:35:00,82.9,63.5,30.01,West,271,3.0,6.0,52,0.00,,---,0.00,VWS V14.01,2013-08-20 20:35:00,
2013-08-20 16:36:00,82.9,63.5,30.01,West,281,2.0,6.0,52,0.00,,---,0.00,VWS V14.01,2013-08-20 20:36:00,
2013-08-20 16:38:00,83.0,63.6,30.01,West,263,3.0,6.0,52,0.00,,---,0.00,VWS V14.01,2013-08-20 20:38:00,
2013-08-20 16:40:00,82.9,62.9,30.01,SW,232,4.0,7.0,51,0.00,,---,0.00,VWS V14.01,2013-08-20 20:40:00,
2013-08-20 16:41:00,82.9,62.9,30.01,WSW,253,5.0,7.0,51,0.00,,---,0.00,VWS V14.01,2013-08-20 20:41:00,
2013-08-20 16:43:00,82.8,62.8,30.01,WNW,296,1.0,7.0,51,0.00,,---,0.00,VWS V14.01,2013-08-20 20:43:00,
2013-08-20 16:44:00,82.7,62.2,30.01,SSW,211,6.0,8.0,50,0.00,,---,0.00,VWS V14.01,2013-08-20 20:44:00,
2013-08-20 16:45:00,82.7,63.3,30.01,SW,222,3.0,8.0,52,0.00,,---,0.00,VWS V14.01,2013-08-20 20:45:00,
2013-08-20 16:46:00,82.7,62.8,30.01,West,275,2.0,8.0,51,0.00,,---,0.00,VWS V14.01,2013-08-20 20:46:00,
2013-08-20 16:47:00,82.7,62.8,30.01,NW,314,0.0,8.0,51,0.00,,---,0.00,VWS V14.01,2013-08-20 20:47:00,
2013-08-20 16:49:00,83.0,63.0,30.01,WSW,253,4.0,8.0,51,0.00,,---,0.00,VWS V14.01,2013-08-20 20:49:00,
2013-08-20 16:50:00,83.0,63.6,30.01,WSW,257,2.0,8.0,52,0.00,,---,0.00,VWS V14.01,2013-08-20 20:50:00,
2013-08-20 16:51:00,83.0,62.5,30.01,West,266,3.0,8.0,50,0.00,,---,0.00,VWS V14.01,2013-08-20 20:51:00,
2013-08-20 16:52:00,83.0,63.0,30.01,WNW,283,2.0,8.0,51,0.00,,---,0.00,VWS V14.01,2013-08-20 20:52:00,
2013-08-20 16:54:00,83.2,63.8,30.01,ESE,108,1.0,8.0,52,0.00,,---,0.00,VWS V14.01,2013-08-20 20:54:00,
2013-08-20 16:55:00,83.4,63.4,30.01,SW,235,3.0,8.0,51,0.00,,---,0.00,VWS V14.01,2013-08-20 20:55:00,
2013-08-20 16:56:00,83.4,62.8,30.01,WNW,299,5.0,8.0,50,0.00,,---,0.00,VWS V14.01,2013-08-20 20:56:00,
2013-08-20 16:57:00,83.4,62.8,30.01,NW,304,2.0,8.0,50,0.00,,---,0.00,VWS V14.01,2013-08-20 20:57:00,
2013-08-20 17:00:00,83.3,63.3,30.01,SW,218,3.0,4.0,51,0.00,,---,0.00,VWS V14.01,2013-08-20 21:00:00,
2013-08-20 17:02:00,83.3,63.9,30.01,WSW,250,2.0,4.0,52,0.00,,---,0.00,VWS V14.01,2013-08-20 21:02:00,
2013-08-20 17:03:00,83.3,63.9,30.01,WSW,250,4.0,4.0,52,0.00,,---,0.00,VWS V14.01,2013-08-20 21:03:00,
2013-08-20 17:05:00,83.3,63.9,30.01,WSW,248,5.0,6.0,52,0.00,,---,0.00,VWS V14.01,2013-08-20 21:05:00,
2013-08-20 17:06:00,83.2,63.2,30.01,WSW,240,1.0,6.0,51,0.00,,---,0.00,VWS V14.01,2013-08-20 21:06:00,
2013-08-20 17:07:00,83.3,63.3,30.01,SW,225,2.0,6.0,51,0.00,,---,0.00,VWS V14.01,2013-08-20 21:07:00,
2013-08-20 17:08:00,83.3,63.3,30.01,West,276,3.0,6.0,51,0.00,,---,0.00,VWS V14.01,2013-08-20 21:08:00,
2013-08-20 17:11:00,83.2,63.2,30.01,West,270,3.0,6.0,51,0.00,,---,0.00,VWS V14.01,2013-08-20 21:11:00,
2013-08-20 17:12:00,83.3,63.3,30.01,West,269,3.0,6.0,51,0.00,,---,0.00,VWS V14.01,2013-08-20 21:12:00,
2013-08-20 17:13:00,83.2,63.8,30.01,WSW,257,1.0,6.0,52,0.00,,---,0.00,VWS V14.01,2013-08-20 21:13:00,
2013-08-20 17:14:00,83.2,63.8,30.01,SSW,212,3.0,6.0,52,0.00,,---,0.00,VWS V14.01,2013-08-20 21:14:00,
2013-08-20 17:16:00,83.2,63.8,30.01,WSW,258,2.0,6.0,52,0.00,,---,0.00,VWS V14.01,2013-08-20 21:16:00,
2013-08-20 17:18:00,83.2,63.8,30.01,SW,236,2.0,6.0,52,0.00,,---,0.00,VWS V14.01,2013-08-20 21:18:00,
2013-08-20 17:19:00,83.2,63.8,30.01,WSW,253,0.0,6.0,52,0.00,,---,0.00,VWS V14.01,2013-08-20 21:19:00,
2013-08-20 17:20:00,83.3,63.9,30.01,NW,304,1.0,6.0,52,0.00,,---,0.00,VWS V14.01,2013-08-20 21:20:00,
2013-08-20 17:21:00,83.4,63.4,30.01,NNW,330,5.0,6.0,51,0.00,,---,0.00,VWS V14.01,2013-08-20 21:21:00,
2013-08-20 17:23:00,83.5,63.5,30.01,WSW,243,2.0,6.0,51,0.00,,---,0.00,VWS V14.01,2013-08-20 21:23:00,
2013-08-20 17:24:00,83.5,64.0,30.01,West,281,3.0,6.0,52,0.00,,---,0.00,VWS V14.01,2013-08-20 21:24:00,
2013-08-20 17:25:00,83.4,64.0,30.01,SW,229,1.0,6.0,52,0.00,,---,0.00,VWS V14.01,2013-08-20 21:25:00,
2013-08-20 17:26:00,83.4,64.0,30.01,SW,221,2.0,6.0,52,0.00,,---,0.00,VWS V14.01,2013-08-20 21:26:00,
2013-08-20 17:28:00,83.4,64.0,30.01,SSE,159,3.0,6.0,52,0.00,,---,0.00,VWS V14.01,2013-08-20 21:28:00,
2013-08-20 17:30:00,83.4,64.0,30.01,West,269,2.0,5.0,52,0.00,,---,0.00,VWS V14.01,2013-08-20 21:30:00,
2013-08-20 17:31:00,83.2,63.8,30.01,WSW,248,4.0,5.0,52,0.00,,---,0.00,VWS V14.01,2013-08-20 21:31:00,
2013-08-20 17:32:00,83.1,64.2,30.01,WSW,237,2.0,5.0,53,0.00,,---,0.00,VWS V14.01,2013-08-20 21:32:00,
2013-08-20 17:33:00,82.9,64.6,30.01,West,270,3.0,5.0,54,0.00,,---,0.00,VWS V14.01,2013-08-20 21:33:00,
2013-08-20 17:34:00,82.9,64.0,30.01,WSW,244,3.0,5.0,53,0.00,,---,0.00,VWS V14.01,2013-08-20 21:34:00,
2013-08-20 17:36:00,83.0,65.2,30.01,West,272,3.0,5.0,55,0.00,,---,0.00,VWS V14.01,2013-08-20 21:36:00,
2013-08-20 17:37:00,83.0,64.1,30.01,SW,228,1.0,5.0,53,0.00,,---,0.00,VWS V14.01,2013-08-20 21:37:00,
2013-08-20 17:38:00,82.9,64.6,30.01,SW,221,0.0,5.0,54,0.00,,---,0.00,VWS V14.01,2013-08-20 21:38:00,
2013-08-20 17:39:00,83.0,64.1,30.01,WSW,256,1.0,5.0,53,0.00,,---,0.00,VWS V14.01,2013-08-20 21:39:00,
2013-08-20 17:40:00,83.0,64.7,30.01,West,269,3.0,5.0,54,0.00,,---,0.00,VWS V14.01,2013-08-20 21:40:00,
2013-08-20 17:41:00,83.0,64.1,30.01,SW,231,1.0,5.0,53,0.00,,---,0.00,VWS V14.01,2013-08-20 21:41:00,
2013-08-20 17:42:00,82.9,64.6,30.01,North,6,1.0,5.0,54,0.00,,---,0.00,VWS V14.01,2013-08-20 21:42:00,
2013-08-20 17:44:00,82.9,63.5,30.01,WNW,302,3.0,5.0,52,0.00,,---,0.00,VWS V14.01,2013-08-20 21:44:00,
2013-08-20 17:45:00,82.9,64.0,30.01,WSW,257,3.0,5.0,53,0.00,,---,0.00,VWS V14.01,2013-08-20 21:45:00,
2013-08-20 17:47:00,82.8,63.9,30.01,West,277,1.0,5.0,53,0.00,,---,0.00,VWS V14.01,2013-08-20 21:47:00,
2013-08-20 17:48:00,82.8,63.9,30.01,West,271,1.0,5.0,53,0.00,,---,0.00,VWS V14.01,2013-08-20 21:48:00,
2013-08-20 17:50:00,82.7,63.8,30.02,WNW,302,1.0,5.0,53,0.00,,---,0.00,VWS V14.01,2013-08-20 21:50:00,
2013-08-20 17:51:00,82.7,63.8,30.01,WSW,248,4.0,5.0,53,0.00,,---,0.00,VWS V14.01,2013-08-20 21:51:00,
2013-08-20 17:52:00,82.6,63.8,30.01,West,263,2.0,6.0,53,0.00,,---,0.00,VWS V14.01,2013-08-20 21:52:00,
2013-08-20 17:54:00,82.5,63.7,30.01,WNW,295,2.0,6.0,53,0.00,,---,0.00,VWS V14.01,2013-08-20 21:54:00,
2013-08-20 17:56:00,82.5,64.2,30.01,WSW,250,2.0,6.0,54,0.00,,---,0.00,VWS V14.01,2013-08-20 21:56:00,
2013-08-20 17:57:00,82.5,64.2,30.02,SW,236,2.0,6.0,54,0.00,,---,0.00,VWS V14.01,2013-08-20 21:57:00,
2013-08-20 17:58:00,82.4,63.6,30.01,West,259,2.0,2.0,53,0.00,,---,0.00,VWS V14.01,2013-08-20 21:58:00,
2013-08-20 18:00:00,82.5,64.2,30.02,West,266,0.0,2.0,54,0.00,,---,0.00,VWS V14.01,2013-08-20 22:00:00,
2013-08-20 18:01:00,82.6,64.3,30.02,WSW,247,0.0,2.0,54,0.00,,---,0.00,VWS V14.01,2013-08-20 22:01:00,
2013-08-20 18:02:00,82.7,64.4,30.02,WSW,253,2.0,2.0,54,0.00,,---,0.00,VWS V14.01,2013-08-20 22:02:00,
2013-08-20 18:04:00,82.7,64.9,30.02,WSW,248,3.0,3.0,55,0.00,,---,0.00,VWS V14.01,2013-08-20 22:04:00,
2013-08-20 18:05:00,82.6,64.3,30.02,WSW,250,4.0,4.0,54,0.00,,---,0.00,VWS V14.01,2013-08-20 22:05:00,
2013-08-20 18:08:00,82.3,64.5,30.02,WSW,252,1.0,4.0,55,0.00,,---,0.00,VWS V14.01,2013-08-20 22:08:00,
2013-08-20 18:09:00,82.2,65.0,30.01,West,267,2.0,4.0,56,0.00,,---,0.00,VWS V14.01,2013-08-20 22:09:00,
2013-08-20 18:10:00,82.1,64.3,30.01,WSW,247,1.0,4.0,55,0.00,,---,0.00,VWS V14.01,2013-08-20 22:10:00,
2013-08-20 18:13:00,82.0,64.8,30.02,WSW,252,1.0,4.0,56,0.00,,---,0.00,VWS V14.01,2013-08-20 22:13:00,
2013-08-20 18:14:00,82.0,64.3,30.02,West,279,0.0,4.0,55,0.00,,---,0.00,VWS V14.01,2013-08-20 22:14:00,
2013-08-20 18:15:00,82.0,64.8,30.02,WSW,257,2.0,4.0,56,0.00,,---,0.00,VWS V14.01,2013-08-20 22:15:00,
2013-08-20 18:19:00,81.8,64.6,30.02,West,271,1.0,4.0,56,0.00,,---,0.00,VWS V14.01,2013-08-20 22:19:00,
2013-08-20 18:20:00,81.7,64.5,30.02,WSW,242,0.0,4.0,56,0.00,,---,0.00,VWS V14.01,2013-08-20 22:20:00,
2013-08-20 18:21:00,81.8,65.1,30.02,WSW,242,1.0,4.0,57,0.00,,---,0.00,VWS V14.01,2013-08-20 22:21:00,
2013-08-20 18:25:00,82.0,64.8,30.02,WNW,285,0.0,4.0,56,0.00,,---,0.00,VWS V14.01,2013-08-20 22:25:00,
2013-08-20 18:26:00,82.0,65.3,30.02,WSW,252,2.0,4.0,57,0.00,,---,0.00,VWS V14.01,2013-08-20 22:26:00,
2013-08-20 18:31:00,82.1,65.4,30.02,West,279,1.0,2.0,57,0.00,,---,0.00,VWS V14.01,2013-08-20 22:31:00,
2013-08-20 18:32:00,82.2,65.5,30.02,West,279,0.0,2.0,57,0.00,,---,0.00,VWS V14.01,2013-08-20 22:32:00,
2013-08-20 18:36:00,82.3,66.1,30.02,WNW,284,2.0,2.0,58,0.00,,---,0.00,VWS V14.01,2013-08-20 22:36:00,
2013-08-20 18:37:00,82.3,66.1,30.02,WNW,287,1.0,2.0,58,0.00,,---,0.00,VWS V14.01,2013-08-20 22:37:00,
2013-08-20 18:38:00,82.3,65.6,30.02,WNW,287,0.0,2.0,57,0.00,,---,0.00,VWS V14.01,2013-08-20 22:38:00,
2013-08-20 18:41:00,82.3,66.1,30.02,WSW,257,0.0,2.0,58,0.00,,---,0.00,VWS V14.01,2013-08-20 22:41:00,
2013-08-20 18:42:00,82.3,65.6,30.02,WSW,257,0.0,2.0,57,0.00,,---,0.00,VWS V14.01,2013-08-20 22:42:00,
2013-08-20 18:43:00,82.2,65.5,30.02,WSW,257,0.0,2.0,57,0.00,,---,0.00,VWS V14.01,2013-08-20 22:43:00,
2013-08-20 18:47:00,82.2,65.5,30.02,West,260,0.0,2.0,57,0.00,,---,0.00,VWS V14.01,2013-08-20 22:47:00,
2013-08-20 18:48:00,82.2,66.0,30.02,West,260,0.0,2.0,58,0.00,,---,0.00,VWS V14.01,2013-08-20 22:48:00,
2013-08-20 18:49:00,82.2,65.5,30.02,WSW,249,0.0,2.0,57,0.00,,---,0.00,VWS V14.01,2013-08-20 22:49:00,
2013-08-20 18:52:00,82.0,65.3,30.02,West,264,0.0,2.0,57,0.00,,---,0.00,VWS V14.01,2013-08-20 22:52:00,
2013-08-20 18:54:00,81.8,65.1,30.02,WSW,257,0.0,2.0,57,0.00,,---,0.00,VWS V14.01,2013-08-20 22:54:00,
2013-08-20 18:55:00,81.7,65.0,30.02,WSW,257,0.0,2.0,57,0.00,,---,0.00,VWS V14.01,2013-08-20 22:55:00,
2013-08-20 18:59:00,81.2,65.0,30.02,West,271,0.0,0.0,58,0.00,,---,0.00,VWS V14.01,2013-08-20 22:59:00,
2013-08-20 19:00:00,81.1,65.4,30.02,West,272,0.0,0.0,59,0.00,,---,0.00,VWS V14.01,2013-08-20 23:00:00,
2013-08-20 19:02:00,81.0,64.8,30.02,West,276,0.0,0.0,58,0.00,,---,0.00,VWS V14.01,2013-08-20 23:02:00,
2013-08-20 19:04:00,80.7,64.6,30.02,West,271,0.0,0.0,58,0.00,,---,0.00,VWS V14.01,2013-08-20 23:04:00,
2013-08-20 19:05:00,80.7,64.6,30.02,West,271,0.0,0.0,58,0.00,,---,0.00,VWS V14.01,2013-08-20 23:05:00,
2013-08-20 19:07:00,80.4,64.8,30.02,West,269,0.0,0.0,59,0.00,,---,0.00,VWS V14.01,2013-08-20 23:07:00,
2013-08-20 19:08:00,80.3,64.7,30.03,West,271,0.0,0.0,59,0.00,,---,0.00,VWS V14.01,2013-08-20 23:08:00,
2013-08-20 19:10:00,80.0,64.9,30.02,West,270,0.0,0.0,60,0.00,,---,0.00,VWS V14.01,2013-08-20 23:10:00,
2013-08-20 19:11:00,79.8,64.7,30.02,West,270,0.0,0.0,60,0.00,,---,0.00,VWS V14.01,2013-08-20 23:11:00,
2013-08-20 19:12:00,79.7,65.1,30.02,West,270,0.0,0.0,61,0.00,,---,0.00,VWS V14.01,2013-08-20 23:12:00,
2013-08-20 19:13:00,79.5,64.9,30.02,West,270,0.0,0.0,61,0.00,,---,0.00,VWS V14.01,2013-08-20 23:13:00,
2013-08-20 19:15:00,79.2,64.6,30.03,West,270,0.0,0.0,61,0.00,,---,0.00,VWS V14.01,2013-08-20 23:15:00,
2013-08-20 19:16:00,79.1,64.5,30.03,West,272,0.0,0.0,61,0.00,,---,0.00,VWS V14.01,2013-08-20 23:16:00,
2013-08-20 19:17:00,78.9,65.2,30.03,West,273,0.0,0.0,63,0.00,,---,0.00,VWS V14.01,2013-08-20 23:17:00,
2013-08-20 19:19:00,78.5,64.9,30.03,West,272,0.0,0.0,63,0.00,,---,0.00,VWS V14.01,2013-08-20 23:19:00,
2013-08-20 19:21:00,78.3,64.2,30.03,West,273,0.0,0.0,62,0.00,,---,0.00,VWS V14.01,2013-08-20 23:21:00,
2013-08-20 19:22:00,78.1,64.5,30.03,West,272,0.0,0.0,63,0.00,,---,0.00,VWS V14.01,2013-08-20 23:22:00,
2013-08-20 19:24:00,77.8,65.1,30.03,West,272,0.0,0.0,65,0.00,,---,0.00,VWS V14.01,2013-08-20 23:24:00,
2013-08-20 19:26:00,77.7,64.1,30.03,West,279,0.0,0.0,63,0.00,,---,0.00,VWS V14.01,2013-08-20 23:26:00,
2013-08-20 19:27:00,77.6,64.5,30.03,West,281,0.0,0.0,64,0.00,,---,0.00,VWS V14.01,2013-08-20 23:27:00,
2013-08-20 19:28:00,77.5,64.4,30.03,West,281,0.0,0.0,64,0.00,,---,0.00,VWS V14.01,2013-08-20 23:28:00,
2013-08-20 19:30:00,77.4,64.3,30.03,West,281,0.0,0.0,64,0.00,,---,0.00,VWS V14.01,2013-08-20 23:30:00,
2013-08-20 19:31:00,77.3,64.2,30.03,West,281,0.0,0.0,64,0.00,,---,0.00,VWS V14.01,2013-08-20 23:31:00,
2013-08-20 19:33:00,77.2,64.1,30.03,West,281,0.0,0.0,64,0.00,,---,0.00,VWS V14.01,2013-08-20 23:33:00,
2013-08-20 19:34:00,77.1,64.4,30.03,West,281,0.0,0.0,65,0.00,,---,0.00,VWS V14.01,2013-08-20 23:34:00,
2013-08-20 19:35:00,77.1,64.4,30.03,West,281,0.0,0.0,65,0.00,,---,0.00,VWS V14.01,2013-08-20 23:35:00,
2013-08-20 19:36:00,77.0,64.3,30.03,West,281,0.0,0.0,65,0.00,,---,0.00,VWS V14.01,2013-08-20 23:36:00,
2013-08-20 19:39:00,76.8,67.1,30.03,North,355,0.0,0.0,72,0.00,,---,0.00,VWS V14.01,2013-08-20 23:39:00,
2013-08-20 19:41:00,76.6,67.3,30.03,North,355,0.0,0.0,73,0.00,,---,0.00,VWS V14.01,2013-08-20 23:41:00,
2013-08-20 19:42:00,76.3,67.8,30.03,North,356,0.0,0.0,75,0.00,,---,0.00,VWS V14.01,2013-08-20 23:42:00,
2013-08-20 19:46:00,75.6,67.9,30.03,North,355,0.0,0.0,77,0.00,,---,0.00,VWS V14.01,2013-08-20 23:46:00,
2013-08-20 19:47:00,75.3,67.6,30.03,North,355,0.0,0.0,77,0.00,,---,0.00,VWS V14.01,2013-08-20 23:47:00,
2013-08-20 19:48:00,75.1,67.4,30.03,North,355,0.0,0.0,77,0.00,,---,0.00,VWS V14.01,2013-08-20 23:48:00,
2013-08-20 19:51:00,74.6,66.9,30.03,North,356,0.0,0.0,77,0.00,,---,0.00,VWS V14.01,2013-08-20 23:51:00,
2013-08-20 19:52:00,74.6,66.9,30.03,North,355,0.0,0.0,77,0.00,,---,0.00,VWS V14.01,2013-08-20 23:52:00,
2013-08-20 19:53:00,74.5,66.8,30.03,North,355,0.0,0.0,77,0.00,,---,0.00,VWS V14.01,2013-08-20 23:53:00,
2013-08-20 19:57:00,74.0,66.3,30.03,North,354,0.0,0.0,77,0.00,,---,0.00,VWS V14.01,2013-08-20 23:57:00,
2013-08-20 19:58:00,73.9,66.2,30.03,North,354,0.0,0.0,77,0.00,,---,0.00,VWS V14.01,2013-08-20 23:58:00,
2013-08-20 19:59:00,73.8,66.5,30.03,North,354,0.0,0.0,78,0.00,,---,0.00,VWS V14.01,2013-08-20 23:59:00,
2013-08-20 20:02:00,73.6,66.3,30.03,NNW,345,0.0,0.0,78,0.00,,---,0.00,VWS V14.01,2013-08-21 00:02:00,
2013-08-20 20:04:00,73.6,66.3,30.03,NW,323,0.0,0.0,78,0.00,,---,0.00,VWS V14.01,2013-08-21 00:04:00,
2013-08-20 20:06:00,73.6,66.3,30.03,West,278,0.0,0.0,78,0.00,,---,0.00,VWS V14.01,2013-08-21 00:06:00,
2013-08-20 20:07:00,73.6,66.7,30.03,West,278,0.0,0.0,79,0.00,,---,0.00,VWS V14.01,2013-08-21 00:07:00,
2013-08-20 20:09:00,73.6,67.1,30.03,West,278,0.0,0.0,80,0.00,,---,0.00,VWS V14.01,2013-08-21 00:09:00,
2013-08-20 20:11:00,73.5,67.0,30.03,West,278,0.0,0.0,80,0.00,,---,0.00,VWS V14.01,2013-08-21 00:11:00,
2013-08-20 20:13:00,73.5,67.0,30.03,West,278,0.0,0.0,80,0.00,,---,0.00,VWS V14.01,2013-08-21 00:13:00,
2013-08-20 20:15:00,73.4,66.9,30.03,West,278,0.0,0.0,80,0.00,,---,0.00,VWS V14.01,2013-08-21 00:15:00,
2013-08-20 20:18:00,73.2,67.0,30.03,West,278,0.0,0.0,81,0.00,,---,0.00,VWS V14.01,2013-08-21 00:18:00,
2013-08-20 20:19:00,73.1,66.6,30.03,West,278,0.0,0.0,80,0.00,,---,0.00,VWS V14.01,2013-08-21 00:19:00,
2013-08-20 20:20:00,73.0,66.8,30.03,West,278,0.0,0.0,81,0.00,,---,0.00,VWS V14.01,2013-08-21 00:20:00,
2013-08-20 20:21:00,72.9,66.4,30.03,West,278,0.0,0.0,80,0.00,,---,0.00,VWS V14.01,2013-08-21 00:21:00,
2013-08-20 20:22:00,68.9,64.6,30.05,North,352,0.0,0.0,86,0.00,,---,0.00,VWS V14.01,2013-08-21 00:22:00,
2013-08-20 20:23:00,72.6,66.1,30.04,West,278,0.0,0.0,80,0.00,,---,0.00,VWS V14.01,2013-08-21 00:23:00,
2013-08-20 20:24:00,72.5,66.3,30.04,West,278,0.0,0.0,81,0.00,,---,0.00,VWS V14.01,2013-08-21 00:24:00,
2013-08-20 20:25:00,72.3,66.2,30.04,West,278,0.0,0.0,81,0.00,,---,0.00,VWS V14.01,2013-08-21 00:25:00,
2013-08-20 20:26:00,72.3,66.2,30.04,West,278,0.0,0.0,81,0.00,,---,0.00,VWS V14.01,2013-08-21 00:26:00,
2013-08-20 20:27:00,68.7,64.7,30.05,North,352,0.0,0.0,87,0.00,,---,0.00,VWS V14.01,2013-08-21 00:27:00,
2013-08-20 20:28:00,72.0,65.9,30.04,West,278,0.0,0.0,81,0.00,,---,0.00,VWS V14.01,2013-08-21 00:28:00,
2013-08-20 20:29:00,68.6,64.6,30.06,North,352,0.0,0.0,87,0.00,,---,0.00,VWS V14.01,2013-08-21 00:29:00,
2013-08-20 20:30:00,71.9,66.1,30.04,West,279,0.0,0.0,82,0.00,,---,0.00,VWS V14.01,2013-08-21 00:30:00,
2013-08-20 20:31:00,71.7,65.9,30.04,NNW,343,0.0,0.0,82,0.00,,---,0.00,VWS V14.01,2013-08-21 00:31:00,
2013-08-20 20:34:00,68.3,64.6,30.06,North,352,0.0,0.0,88,0.00,,---,0.00,VWS V14.01,2013-08-21 00:34:00,
2013-08-20 20:35:00,71.1,65.3,30.04,North,354,2.0,2.0,82,0.00,,---,0.00,VWS V14.01,2013-08-21 00:35:00,
2013-08-20 20:36:00,70.9,65.1,30.04,North,357,2.0,2.0,82,0.00,,---,0.00,VWS V14.01,2013-08-21 00:36:00,
2013-08-20 20:37:00,70.8,65.4,30.04,North,353,2.0,3.0,83,0.00,,---,0.00,VWS V14.01,2013-08-21 00:37:00,
2013-08-20 20:40:00,70.5,65.1,30.04,NNW,345,2.0,3.0,83,0.00,,---,0.00,VWS V14.01,2013-08-21 00:40:00,
2013-08-20 20:41:00,70.4,65.0,30.05,NNW,346,2.0,3.0,83,0.00,,---,0.00,VWS V14.01,2013-08-21 00:41:00,
2013-08-20 20:42:00,70.3,64.9,30.05,North,352,2.0,3.0,83,0.00,,---,0.00,VWS V14.01,2013-08-21 00:42:00,
2013-08-20 20:45:00,70.1,65.1,30.05,North,359,2.0,3.0,84,0.00,,---,0.00,VWS V14.01,2013-08-21 00:45:00,
2013-08-20 20:46:00,70.1,65.1,30.05,North,359,0.0,3.0,84,0.00,,---,0.00,VWS V14.01,2013-08-21 00:46:00,
2013-08-20 20:47:00,70.0,64.9,30.05,North,4,0.0,3.0,84,0.00,,---,0.00,VWS V14.01,2013-08-21 00:47:00,
2013-08-20 20:48:00,70.0,64.9,30.05,NNE,18,0.0,3.0,84,0.00,,---,0.00,VWS V14.01,2013-08-21 00:48:00,
2013-08-20 20:50:00,69.9,65.2,30.05,North,11,0.0,3.0,85,0.00,,---,0.00,VWS V14.01,2013-08-21 00:50:00,
2013-08-20 20:52:00,69.8,65.1,30.05,North,6,0.0,3.0,85,0.00,,---,0.00,VWS V14.01,2013-08-21 00:52:00,
2013-08-20 20:53:00,69.8,65.1,30.05,North,6,1.0,3.0,85,0.00,,---,0.00,VWS V14.01,2013-08-21 00:53:00,
2013-08-20 20:55:00,69.7,65.0,30.05,North,6,0.0,3.0,85,0.00,,---,0.00,VWS V14.01,2013-08-21 00:55:00,
2013-08-20 20:58:00,69.6,64.9,30.05,North,6,0.0,3.0,85,0.00,,---,0.00,VWS V14.01,2013-08-21 00:58:00,
2013-08-20 20:59:00,69.6,65.2,30.05,North,6,0.0,0.0,86,0.00,,---,0.00,VWS V14.01,2013-08-21 00:59:00,
2013-08-20 21:01:00,69.5,65.1,30.05,North,6,0.0,0.0,86,0.00,,---,0.00,VWS V14.01,2013-08-21 01:01:00,
2013-08-20 21:03:00,69.4,65.0,30.05,North,352,0.0,0.0,86,0.00,,---,0.00,VWS V14.01,2013-08-21 01:03:00,
2013-08-20 21:04:00,69.3,64.9,30.05,North,353,0.0,0.0,86,0.00,,---,0.00,VWS V14.01,2013-08-21 01:04:00,
2013-08-20 21:05:00,69.3,64.6,30.05,North,353,0.0,0.0,85,0.00,,---,0.00,VWS V14.01,2013-08-21 01:05:00,
2013-08-20 21:06:00,69.3,64.9,30.05,North,352,0.0,0.0,86,0.00,,---,0.00,VWS V14.01,2013-08-21 01:06:00,
2013-08-20 21:09:00,69.2,64.8,30.05,North,352,0.0,0.0,86,0.00,,---,0.00,VWS V14.01,2013-08-21 01:09:00,
2013-08-20 21:11:00,69.2,64.8,30.05,North,352,0.0,0.0,86,0.00,,---,0.00,VWS V14.01,2013-08-21 01:11:00,
2013-08-20 21:12:00,69.2,64.8,30.05,North,352,0.0,0.0,86,0.00,,---,0.00,VWS V14.01,2013-08-21 01:12:00,
2013-08-20 21:15:00,69.1,64.7,30.05,North,351,0.0,0.0,86,0.00,,---,0.00,VWS V14.01,2013-08-21 01:15:00,
2013-08-20 21:16:00,69.1,64.7,30.05,North,352,0.0,0.0,86,0.00,,---,0.00,VWS V14.01,2013-08-21 01:16:00,
2013-08-20 21:17:00,69.1,64.7,30.05,North,352,0.0,0.0,86,0.00,,---,0.00,VWS V14.01,2013-08-21 01:17:00,
2013-08-20 21:20:00,68.9,64.6,30.05,North,352,0.0,0.0,86,0.00,,---,0.00,VWS V14.01,2013-08-21 01:20:00,
2013-08-20 21:22:00,68.9,64.9,30.06,North,352,0.0,0.0,87,0.00,,---,0.00,VWS V14.01,2013-08-21 01:22:00,
2013-08-20 21:25:00,68.7,64.7,30.05,North,352,0.0,0.0,87,0.00,,---,0.00,VWS V14.01,2013-08-21 01:25:00,
2013-08-20 21:27:00,68.6,64.6,30.06,North,351,0.0,0.0,87,0.00,,---,0.00,VWS V14.01,2013-08-21 01:27:00,
2013-08-20 21:28:00,68.6,64.6,30.06,North,351,0.0,0.0,87,0.00,,---,0.00,VWS V14.01,2013-08-21 01:28:00,
2013-08-20 21:30:00,68.5,64.5,30.06,North,352,0.0,0.0,87,0.00,,---,0.00,VWS V14.01,2013-08-21 01:30:00,
2013-08-20 21:31:00,68.4,64.7,30.06,North,352,0.0,0.0,88,0.00,,---,0.00,VWS V14.01,2013-08-21 01:31:00,
2013-08-20 21:33:00,68.3,64.6,30.06,North,351,0.0,0.0,88,0.00,,---,0.00,VWS V14.01,2013-08-21 01:33:00,
2013-08-20 21:35:00,68.2,64.5,30.06,North,352,0.0,0.0,88,0.00,,---,0.00,VWS V14.01,2013-08-21 01:35:00,
2013-08-20 21:36:00,68.1,64.4,30.06,North,351,0.0,0.0,88,0.00,,---,0.00,VWS V14.01,2013-08-21 01:36:00,
2013-08-20 21:37:00,68.1,64.4,30.06,North,352,0.0,0.0,88,0.00,,---,0.00,VWS V14.01,2013-08-21 01:37:00,
2013-08-20 21:39:00,68.0,64.6,30.06,North,352,0.0,0.0,89,0.00,,---,0.00,VWS V14.01,2013-08-21 01:39:00,
2013-08-20 21:40:00,67.9,64.5,30.06,North,352,0.0,0.0,89,0.00,,---,0.00,VWS V14.01,2013-08-21 01:40:00,
2013-08-20 21:42:00,67.8,64.4,30.06,North,352,0.0,0.0,89,0.00,,---,0.00,VWS V14.01,2013-08-21 01:42:00,
2013-08-20 21:43:00,67.8,64.4,30.06,North,351,0.0,0.0,89,0.00,,---,0.00,VWS V14.01,2013-08-21 01:43:00,
2013-08-20 21:44:00,67.7,64.3,30.06,North,352,0.0,0.0,89,0.00,,---,0.00,VWS V14.01,2013-08-21 01:44:00,
2013-08-20 21:46:00,67.7,64.3,30.06,North,351,0.0,0.0,89,0.00,,---,0.00,VWS V14.01,2013-08-21 01:46:00,
2013-08-20 21:47:00,67.6,64.2,30.06,North,351,0.0,0.0,89,0.00,,---,0.00,VWS V14.01,2013-08-21 01:47:00,
2013-08-20 21:48:00,67.5,64.2,30.06,North,352,0.0,0.0,89,0.00,,---,0.00,VWS V14.01,2013-08-21 01:48:00,
2013-08-20 21:51:00,67.4,64.1,30.06,North,352,0.0,0.0,89,0.00,,---,0.00,VWS V14.01,2013-08-21 01:51:00,
2013-08-20 21:53:00,67.3,64.0,30.06,North,352,0.0,0.0,89,0.00,,---,0.00,VWS V14.01,2013-08-21 01:53:00,
2013-08-20 21:54:00,67.2,64.2,30.06,North,352,0.0,0.0,90,0.00,,---,0.00,VWS V14.01,2013-08-21 01:54:00,
2013-08-20 21:57:00,67.1,64.1,30.06,North,351,0.0,0.0,90,0.00,,---,0.00,VWS V14.01,2013-08-21 01:57:00,
2013-08-20 21:59:00,67.1,64.1,30.06,North,352,0.0,0.0,90,0.00,,---,0.00,VWS V14.01,2013-08-21 01:59:00,
2013-08-20 22:00:00,67.1,64.1,30.06,North,351,0.0,0.0,90,0.00,,---,0.00,VWS V14.01,2013-08-21 02:00:00,
2013-08-20 22:02:00,67.0,64.3,30.06,North,352,0.0,0.0,91,0.00,,---,0.00,VWS V14.01,2013-08-21 02:02:00,
2013-08-20 22:03:00,67.0,64.3,30.06,North,352,0.0,0.0,91,0.00,,---,0.00,VWS V14.01,2013-08-21 02:03:00,
2013-08-20 22:05:00,66.9,64.2,30.06,North,352,0.0,0.0,91,0.00,,---,0.00,VWS V14.01,2013-08-21 02:05:00,
2013-08-20 22:07:00,66.9,64.2,30.06,North,351,0.0,0.0,91,0.00,,---,0.00,VWS V14.01,2013-08-21 02:07:00,
2013-08-20 22:08:00,66.9,64.2,30.06,North,351,0.0,0.0,91,0.00,,---,0.00,VWS V14.01,2013-08-21 02:08:00,
2013-08-20 22:10:00,66.9,64.2,30.06,North,352,0.0,0.0,91,0.00,,---,0.00,VWS V14.01,2013-08-21 02:10:00,
2013-08-20 22:13:00,66.9,64.2,30.06,North,352,0.0,0.0,91,0.00,,---,0.00,VWS V14.01,2013-08-21 02:13:00,
2013-08-20 22:15:00,66.9,64.2,30.06,North,352,0.0,0.0,91,0.00,,---,0.00,VWS V14.01,2013-08-21 02:15:00,
2013-08-20 22:16:00,66.9,64.2,30.06,North,352,0.0,0.0,91,0.00,,---,0.00,VWS V14.01,2013-08-21 02:16:00,
2013-08-20 22:17:00,66.8,64.1,30.06,North,351,0.0,0.0,91,0.00,,---,0.00,VWS V14.01,2013-08-21 02:17:00,
2013-08-20 22:18:00,66.8,64.1,30.06,North,351,0.0,0.0,91,0.00,,---,0.00,VWS V14.01,2013-08-21 02:18:00,
2013-08-20 22:20:00,66.6,63.9,30.06,North,354,0.0,0.0,91,0.00,,---,0.00,VWS V14.01,2013-08-21 02:20:00,
2013-08-20 22:21:00,66.5,63.5,30.06,North,351,0.0,0.0,90,0.00,,---,0.00,VWS V14.01,2013-08-21 02:21:00,
2013-08-20 22:23:00,66.4,63.7,30.06,NNW,347,0.0,0.0,91,0.00,,---,0.00,VWS V14.01,2013-08-21 02:23:00,
2013-08-20 22:24:00,66.3,63.6,30.05,NNW,347,0.0,0.0,91,0.00,,---,0.00,VWS V14.01,2013-08-21 02:24:00,
2013-08-20 22:26:00,66.2,63.5,30.06,NNW,345,0.0,0.0,91,0.00,,---,0.00,VWS V14.01,2013-08-21 02:26:00,
2013-08-20 22:27:00,66.2,63.8,30.05,NNW,345,0.0,0.0,92,0.00,,---,0.00,VWS V14.01,2013-08-21 02:27:00,
2013-08-20 22:28:00,66.2,63.8,30.05,NNW,345,0.0,0.0,92,0.00,,---,0.00,VWS V14.01,2013-08-21 02:28:00,
2013-08-20 22:29:00,66.1,63.7,30.05,NNW,345,0.0,0.0,92,0.00,,---,0.00,VWS V14.01,2013-08-21 02:29:00,
2013-08-20 22:32:00,66.1,63.7,30.05,NNE,18,0.0,0.0,92,0.00,,---,0.00,VWS V14.01,2013-08-21 02:32:00,
2013-08-20 22:33:00,66.1,63.7,30.05,NNE,18,0.0,0.0,92,0.00,,---,0.00,VWS V14.01,2013-08-21 02:33:00,
2013-08-20 22:34:00,66.2,63.8,30.06,NNE,18,0.0,0.0,92,0.00,,---,0.00,VWS V14.01,2013-08-21 02:34:00,
2013-08-20 22:35:00,66.2,63.8,30.06,NNE,18,0.0,0.0,92,0.00,,---,0.00,VWS V14.01,2013-08-21 02:35:00,
2013-08-20 22:36:00,66.2,63.8,30.06,NNE,18,0.0,0.0,92,0.00,,---,0.00,VWS V14.01,2013-08-21 02:36:00,
2013-08-20 22:37:00,66.2,63.8,30.06,NNE,16,0.0,0.0,92,0.00,,---,0.00,VWS V14.01,2013-08-21 02:37:00,
2013-08-20 22:38:00,66.2,63.8,30.06,NNE,16,0.0,0.0,92,0.00,,---,0.00,VWS V14.01,2013-08-21 02:38:00,
2013-08-20 22:40:00,66.1,63.7,30.06,NNE,16,0.0,0.0,92,0.00,,---,0.00,VWS V14.01,2013-08-21 02:40:00,
2013-08-20 22:42:00,66.1,63.7,30.06,NNE,17,0.0,0.0,92,0.00,,---,0.00,VWS V14.01,2013-08-21 02:42:00,
2013-08-20 22:43:00,66.1,64.0,30.06,NNE,16,0.0,0.0,93,0.00,,---,0.00,VWS V14.01,2013-08-21 02:43:00,
2013-08-20 22:44:00,66.1,64.0,30.06,NNE,16,0.0,0.0,93,0.00,,---,0.00,VWS V14.01,2013-08-21 02:44:00,
2013-08-20 22:45:00,66.1,64.0,30.06,NNE,16,0.0,0.0,93,0.00,,---,0.00,VWS V14.01,2013-08-21 02:45:00,
2013-08-20 22:47:00,66.2,64.1,30.06,NNE,16,0.0,0.0,93,0.00,,---,0.00,VWS V14.01,2013-08-21 02:47:00,
2013-08-20 22:48:00,66.2,64.1,30.06,North,11,0.0,0.0,93,0.00,,---,0.00,VWS V14.01,2013-08-21 02:48:00,
2013-08-20 22:49:00,66.2,64.1,30.06,North,11,0.0,0.0,93,0.00,,---,0.00,VWS V14.01,2013-08-21 02:49:00,
2013-08-20 22:50:00,66.2,64.1,30.06,North,11,0.0,0.0,93,0.00,,---,0.00,VWS V14.01,2013-08-21 02:50:00,
2013-08-20 22:52:00,66.2,64.1,30.06,NNE,12,0.0,0.0,93,0.00,,---,0.00,VWS V14.01,2013-08-21 02:52:00,
2013-08-20 22:54:00,66.2,64.1,30.06,NNE,12,0.0,0.0,93,0.00,,---,0.00,VWS V14.01,2013-08-21 02:54:00,
2013-08-20 22:55:00,66.2,64.1,30.06,NNE,12,0.0,0.0,93,0.00,,---,0.00,VWS V14.01,2013-08-21 02:55:00,
2013-08-20 22:56:00,66.2,64.1,30.06,North,11,0.0,0.0,93,0.00,,---,0.00,VWS V14.01,2013-08-21 02:56:00,
2013-08-20 22:57:00,66.2,64.1,30.06,NNE,12,0.0,0.0,93,0.00,,---,0.00,VWS V14.01,2013-08-21 02:57:00,
2013-08-20 22:59:00,66.1,64.0,30.06,North,11,0.0,0.0,93,0.00,,---,0.00,VWS V14.01,2013-08-21 02:59:00,
2013-08-20 23:00:00,66.1,64.0,30.06,NNE,12,0.0,0.0,93,0.00,,---,0.00,VWS V14.01,2013-08-21 03:00:00,
2013-08-20 23:01:00,66.0,63.9,30.06,NNE,12,0.0,0.0,93,0.00,,---,0.00,VWS V14.01,2013-08-21 03:01:00,
2013-08-20 23:02:00,66.0,63.9,30.06,North,11,0.0,0.0,93,0.00,,---,0.00,VWS V14.01,2013-08-21 03:02:00,
2013-08-20 23:03:00,65.0,63.2,30.07,NNW,347,0.0,0.0,94,0.00,,---,0.00,VWS V14.01,2013-08-21 03:03:00,
2013-08-20 23:04:00,65.0,63.2,30.07,NNW,347,0.0,0.0,94,0.00,,---,0.00,VWS V14.01,2013-08-21 03:04:00,
2013-08-20 23:05:00,65.0,63.2,30.07,NNW,347,0.0,0.0,94,0.00,,---,0.00,VWS V14.01,2013-08-21 03:05:00,
2013-08-20 23:06:00,66.0,63.9,30.06,NNE,12,0.0,0.0,93,0.00,,---,0.00,VWS V14.01,2013-08-21 03:06:00,
2013-08-20 23:07:00,66.0,63.9,30.06,NNW,341,0.0,0.0,93,0.00,,---,0.00,VWS V14.01,2013-08-21 03:07:00,
2013-08-20 23:08:00,66.0,63.9,30.06,NNW,345,0.0,0.0,93,0.00,,---,0.00,VWS V14.01,2013-08-21 03:08:00,
2013-08-20 23:09:00,65.0,63.2,30.07,NNW,347,0.0,0.0,94,0.00,,---,0.00,VWS V14.01,2013-08-21 03:09:00,
2013-08-20 23:10:00,65.0,63.2,30.07,NNW,347,0.0,0.0,94,0.00,,---,0.00,VWS V14.01,2013-08-21 03:10:00,
2013-08-20 23:11:00,66.0,63.9,30.06,NNW,348,0.0,0.0,93,0.00,,---,0.00,VWS V14.01,2013-08-21 03:11:00,
2013-08-20 23:12:00,66.0,63.9,30.06,North,349,0.0,0.0,93,0.00,,---,0.00,VWS V14.01,2013-08-21 03:12:00,
2013-08-20 23:13:00,65.1,63.6,30.07,NNW,347,0.0,0.0,95,0.00,,---,0.00,VWS V14.01,2013-08-21 03:13:00,
2013-08-20 23:14:00,65.2,63.7,30.07,NNW,347,0.0,0.0,95,0.00,,---,0.00,VWS V14.01,2013-08-21 03:14:00,
2013-08-20 23:15:00,66.0,63.9,30.06,North,349,0.0,0.0,93,0.00,,---,0.00,VWS V14.01,2013-08-21 03:15:00,
2013-08-20 23:16:00,66.1,64.0,30.06,North,349,0.0,0.0,93,0.00,,---,0.00,VWS V14.01,2013-08-21 03:16:00,
2013-08-20 23:17:00,66.0,63.9,30.06,North,349,0.0,0.0,93,0.00,,---,0.00,VWS V14.01,2013-08-21 03:17:00,
2013-08-20 23:18:00,66.1,64.0,30.06,NNW,348,0.0,0.0,93,0.00,,---,0.00,VWS V14.01,2013-08-21 03:18:00,
2013-08-20 23:19:00,65.2,63.7,30.07,NNW,347,0.0,0.0,95,0.00,,---,0.00,VWS V14.01,2013-08-21 03:19:00,
2013-08-20 23:20:00,65.1,63.6,30.07,NNW,347,0.0,0.0,95,0.00,,---,0.00,VWS V14.01,2013-08-21 03:20:00,
2013-08-20 23:21:00,65.1,63.6,30.07,NNW,347,0.0,0.0,95,0.00,,---,0.00,VWS V14.01,2013-08-21 03:21:00,
2013-08-20 23:22:00,66.0,63.9,30.07,North,349,0.0,0.0,93,0.00,,---,0.00,VWS V14.01,2013-08-21 03:22:00,
2013-08-20 23:23:00,65.9,63.8,30.06,NNW,348,0.0,0.0,93,0.00,,---,0.00,VWS V14.01,2013-08-21 03:23:00,
2013-08-20 23:24:00,65.8,63.4,30.07,North,349,0.0,0.0,92,0.00,,---,0.00,VWS V14.01,2013-08-21 03:24:00,
2013-08-20 23:25:00,65.1,63.6,30.07,NNW,347,0.0,0.0,95,0.00,,---,0.00,VWS V14.01,2013-08-21 03:25:00,
2013-08-20 23:27:00,65.5,63.1,30.07,North,349,0.0,0.0,92,0.00,,---,0.00,VWS V14.01,2013-08-21 03:27:00,
2013-08-20 23:28:00,65.5,63.1,30.07,NNW,348,0.0,0.0,92,0.00,,---,0.00,VWS V14.01,2013-08-21 03:28:00,
2013-08-20 23:29:00,65.4,63.0,30.06,North,349,0.0,0.0,92,0.00,,---,0.00,VWS V14.01,2013-08-21 03:29:00,
2013-08-20 23:32:00,65.3,63.2,30.07,North,349,0.0,0.0,93,0.00,,---,0.00,VWS V14.01,2013-08-21 03:32:00,
2013-08-20 23:33:00,65.3,63.2,30.07,North,350,0.0,0.0,93,0.00,,---,0.00,VWS V14.01,2013-08-21 03:33:00,
2013-08-20 23:34:00,65.3,63.2,30.07,North,350,0.0,0.0,93,0.00,,---,0.00,VWS V14.01,2013-08-21 03:34:00,
2013-08-20 23:35:00,65.3,63.2,30.07,North,350,0.0,0.0,93,0.00,,---,0.00,VWS V14.01,2013-08-21 03:35:00,
2013-08-20 23:38:00,65.2,63.1,30.06,North,354,0.0,0.0,93,0.00,,---,0.00,VWS V14.01,2013-08-21 03:38:00,
2013-08-20 23:39:00,65.1,63.0,30.07,North,354,0.0,0.0,93,0.00,,---,0.00,VWS V14.01,2013-08-21 03:39:00,
2013-08-20 23:40:00,65.1,63.0,30.07,North,354,0.0,0.0,93,0.00,,---,0.00,VWS V14.01,2013-08-21 03:40:00,
2013-08-20 23:41:00,65.1,63.0,30.07,North,354,0.0,0.0,93,0.00,,---,0.00,VWS V14.01,2013-08-21 03:41:00,
2013-08-20 23:43:00,65.0,62.9,30.07,North,354,0.0,0.0,93,0.00,,---,0.00,VWS V14.01,2013-08-21 03:43:00,
2013-08-20 23:46:00,64.9,62.8,30.07,North,354,0.0,0.0,93,0.00,,---,0.00,VWS V14.01,2013-08-21 03:46:00,
2013-08-20 23:47:00,64.9,62.8,30.07,North,354,0.0,0.0,93,0.00,,---,0.00,VWS V14.01,2013-08-21 03:47:00,
2013-08-20 23:49:00,64.9,63.1,30.07,North,354,0.0,0.0,94,0.00,,---,0.00,VWS V14.01,2013-08-21 03:49:00,
2013-08-20 23:52:00,64.9,63.1,30.07,NNW,347,0.0,0.0,94,0.00,,---,0.00,VWS V14.01,2013-08-21 03:52:00,
2013-08-20 23:53:00,64.9,63.1,30.07,NNW,347,0.0,0.0,94,0.00,,---,0.00,VWS V14.01,2013-08-21 03:53:00,
2013-08-20 23:54:00,65.0,63.2,30.07,NNW,347,0.0,0.0,94,0.00,,---,0.00,VWS V14.01,2013-08-21 03:54:00,
2013-08-20 23:58:00,65.0,63.2,30.07,NNW,347,0.0,0.0,94,0.00,,---,0.00,VWS V14.01,2013-08-21 03:58:00,
2013-08-20 23:59:00,65.0,63.2,30.07,NNW,347,0.0,0.0,94,0.00,,---,0.00,VWS V14.01,2013-08-21 03:59:00,